DW8187 Weather Reports


time (UTC)temp
C
wind
direction
speed
KPH
gust
KPH
rain 1hr
cm
rain 24hr
cm
rain mn
cm
humidity
%
barometer
mb
20260509043903 29 9 11.3 17.7 0.00 0.00 0.00 60 1018.5
20260509043805 29 5 11.3 17.7 0.00 0.00 0.00 60 1018.3
20260509043703 29 1 11.3 17.7 0.00 0.00 0.00 60 1018.3
20260509043603 29 354 11.3 17.7 0.00 0.00 0.00 60 1018.4
20260509043524 29 353 9.7 17.7 0.00 0.00 0.00 60 1018.4
20260509043425 29 348 9.7 14.5 0.00 0.00 0.00 60 1018.5
20260509043303 29 349 9.7 14.5 0.00 0.00 0.00 60 1018.6
20260509043203 29 354 9.7 14.5 0.00 0.00 0.00 60 1018.6
20260509043103 29 359 9.7 14.5 0.00 0.00 0.00 60 1018.6
20260509043004 29 358 11.3 14.5 0.00 0.00 0.00 60 1018.6
20260509042903 29 356 9.7 14.5 0.00 0.00 0.00 60 1018.6
20260509042803 29 357 9.7 14.5 0.00 0.00 0.00 60 1018.5
20260509042724 29 359 9.7 14.5 0.00 0.00 0.00 60 1018.6
20260509042603 29 355 9.7 14.5 0.00 0.00 0.00 60 1018.6
20260509042504 29 358 8.0 14.5 0.00 0.00 0.00 60 1018.6
20260509042403 29 4 8.0 14.5 0.00 0.00 0.00 60 1018.7
20260509042306 29 357 8.0 14.5 0.00 0.00 0.00 60 1018.6
20260509042205 29 353 8.0 14.5 0.00 0.00 0.00 60 1018.6
20260509042103 29 354 8.0 17.7 0.00 0.00 0.00 60 1018.8
20260509042004 29 353 8.0 17.7 0.00 0.00 0.00 60 1018.7
20260509041903 29 357 8.0 17.7 0.00 0.00 0.00 60 1018.7
20260509041803 29 357 9.7 17.7 0.00 0.00 0.00 60 1018.9
20260509041704 29 354 9.7 17.7 0.00 0.00 0.00 60 1018.9
20260509041603 29 359 9.7 17.7 0.00 0.00 0.00 60 1018.9
20260509041524 29 359 9.7 17.7 0.00 0.00 0.00 60 1018.8
20260509041403 29 359 8.0 17.7 0.00 0.00 0.00 60 1018.9
20260509041303 29 358 8.0 17.7 0.00 0.00 0.00 60 1018.9
20260509041203 29 360 8.0 17.7 0.00 0.00 0.00 60 1018.9
20260509041124 29 359 8.0 12.9 0.00 0.00 0.00 60 1019.0
20260509041004 29 2 8.0 11.3 0.00 0.00 0.00 60 1018.9
20260509040903 29 3 6.4 11.3 0.00 0.00 0.00 60 1018.9
20260509040805 29 5 6.4 11.3 0.00 0.00 0.00 60 1018.8
20260509040703 29 10 6.4 11.3 0.00 0.00 0.00 60 1019.0
20260509040604 29 10 6.4 11.3 0.00 0.00 0.00 60 1019.1
20260509040503 29 9 6.4 11.3 0.00 0.00 0.00 60 1019.1
20260509040404 29 3 6.4 11.3 0.00 0.00 0.00 60 1019.0
20260509040303 29 3 6.4 11.3 0.00 0.00 0.00 60 1018.8
20260509040224 29 5 6.4 11.3 0.00 0.00 0.00 60 1019.0
20260509040004 29 357 6.4 9.7 0.00 0.00 0.00 60 1018.9
20260509035903 29 358 6.4 9.7 0.00 0.00 0.00 60 1019.0
20260509035803 29 2 6.4 11.3 0.00 0.00 0.00 60 1019.0
20260509035703 29 3 6.4 11.3 0.00 0.00 0.00 60 1019.0
20260509035603 29 6 6.4 11.3 0.00 0.00 0.00 60 1019.2
20260509035504 29 11 6.4 11.3 0.00 0.00 0.00 60 1019.0
20260509035403 29 15 4.8 11.3 0.00 0.00 0.00 60 1019.0
20260509035325 29 14 4.8 11.3 0.00 0.00 0.00 60 1019.0
20260509035204 29 17 4.8 11.3 0.00 0.00 0.00 60 1019.2
20260509035124 29 20 4.8 11.3 0.00 0.00 0.00 60 1019.0
20260509035004 29 24 4.8 11.3 0.00 0.00 0.00 60 1019.0
20260509034903 29 27 4.8 11.3 0.00 0.00 0.00 60 1019.0
20260509034825 29 28 6.4 11.3 0.00 0.00 0.00 60 1019.4
20260509034724 29 21 6.4 12.9 0.00 0.00 0.00 60 1019.1
20260509034603 29 15 6.4 12.9 0.00 0.00 0.00 60 1019.1
20260509034503 29 13 6.4 12.9 0.00 0.00 0.00 60 1019.1
20260509034403 29 11 6.4 12.9 0.00 0.00 0.00 60 1019.2
20260509034303 29 13 6.4 12.9 0.00 0.00 0.00 60 1019.4
20260509034203 29 8 6.4 12.9 0.00 0.00 0.00 60 1019.2
20260509034103 29 6 6.4 12.9 0.00 0.00 0.00 60 1019.2
20260509034004 29 360 8.0 12.9 0.00 0.00 0.00 60 1019.4
20260509033903 29 350 8.0 12.9 0.00 0.00 0.00 60 1019.4
20260509033804 29 339 6.4 12.9 0.00 0.00 0.00 60 1019.5
20260509033724 29 339 6.4 12.9 0.00 0.00 0.00 60 1019.2
20260509033603 29 340 6.4 12.9 0.00 0.00 0.00 60 1019.4
20260509033524 29 342 6.4 12.9 0.00 0.00 0.00 60 1019.4
20260509033426 29 342 6.4 12.9 0.00 0.00 0.00 60 1019.4
20260509033303 29 338 6.4 12.9 0.00 0.00 0.00 60 1019.4
20260509033225 29 338 6.4 12.9 0.00 0.00 0.00 60 1019.4
20260509033103 29 346 6.4 12.9 0.00 0.00 0.00 60 1019.2
20260509033003 29 355 6.4 12.9 0.00 0.00 0.00 60 1019.5
20260509032903 29 358 6.4 12.9 0.00 0.00 0.00 60 1019.5
20260509032803 29 9 6.4 12.9 0.00 0.00 0.00 60 1019.5
20260509032703 29 18 8.0 12.9 0.00 0.00 0.00 60 1019.8
20260509032624 29 20 8.0 12.9 0.00 0.00 0.00 60 1019.5
20260509032524 29 23 8.0 12.9 0.00 0.00 0.00 60 1019.6
20260509032403 29 29 6.4 11.3 0.00 0.00 0.00 60 1019.5
20260509032325 29 31 6.4 11.3 0.00 0.00 0.00 60 1019.6
20260509032203 29 27 6.4 11.3 0.00 0.00 0.00 60 1019.4
20260509032103 29 26 8.0 11.3 0.00 0.00 0.00 60 1019.4
20260509032003 29 26 6.4 11.3 0.00 0.00 0.00 60 1019.4
20260509031924 29 30 6.4 11.3 0.00 0.00 0.00 60 1019.5
20260509031803 29 32 6.4 11.3 0.00 0.00 0.00 60 1019.5
20260509031704 29 29 6.4 11.3 0.00 0.00 0.00 60 1019.5
20260509031604 29 25 4.8 9.7 0.00 0.00 0.00 60 1019.5
20260509031503 29 30 4.8 9.7 0.00 0.00 0.00 60 1019.4
20260509031403 29 35 4.8 9.7 0.00 0.00 0.00 60 1019.6
20260509031324 29 38 4.8 9.7 0.00 0.00 0.00 60 1019.6
20260509031203 29 52 4.8 9.7 0.00 0.00 0.00 60 1019.7
20260509031103 29 49 4.8 9.7 0.00 0.00 0.00 60 1019.6
20260509031003 29 40 4.8 9.7 0.00 0.00 0.00 60 1019.7
20260509030903 29 32 4.8 9.7 0.00 0.00 0.00 60 1019.7
20260509030825 29 22 4.8 9.7 0.00 0.00 0.00 60 1019.7
20260509030703 29 20 4.8 9.7 0.00 0.00 0.00 60 1019.7
20260509030625 29 25 4.8 9.7 0.00 0.00 0.00 60 1019.5
20260509030503 29 20 4.8 9.7 0.00 0.00 0.00 60 1019.7
20260509030403 29 16 4.8 9.7 0.00 0.00 0.00 60 1019.6
20260509030303 29 13 4.8 9.7 0.00 0.00 0.00 60 1019.9
20260509030203 29 10 4.8 9.7 0.00 0.00 0.00 60 1019.8
20260509030025 29 13 4.8 9.7 0.00 0.00 0.00 60 1019.7
20260509025903 29 19 4.8 9.7 0.00 0.00 0.00 60 1019.8
20260509025824 29 21 4.8 9.7 0.00 0.00 0.00 60 1019.8
20260509025703 29 24 4.8 9.7 0.00 0.00 0.00 60 1019.7
20260509025604 29 20 4.8 9.7 0.00 0.00 0.00 60 1019.7
20260509025525 29 18 4.8 9.7 0.00 0.00 0.00 60 1019.7
20260509025403 29 15 4.8 6.4 0.00 0.00 0.00 60 1019.8
20260509025306 29 12 4.8 6.4 0.00 0.00 0.00 60 1019.8
20260509025224 29 12 4.8 6.4 0.00 0.00 0.00 60 1019.7
20260509025124 29 18 4.8 6.4 0.00 0.00 0.00 60 1019.8
20260509025003 29 24 4.8 6.4 0.00 0.00 0.00 60 1019.7
20260509024903 29 26 4.8 6.4 0.00 0.00 0.00 60 1019.7
20260509024803 29 32 4.8 6.4 0.00 0.00 0.00 60 1019.9
20260509024704 29 37 4.8 9.7 0.00 0.00 0.00 60 1019.8
20260509024603 29 41 4.8 9.7 0.00 0.00 0.00 60 1019.7
20260509024503 29 43 4.8 9.7 0.00 0.00 0.00 60 1019.7
20260509024404 29 47 4.8 9.7 0.00 0.00 0.00 60 1019.7
20260509024303 29 42 3.2 9.7 0.00 0.00 0.00 60 1019.8
20260509024203 29 37 3.2 9.7 0.00 0.00 0.00 60 1020.0
20260509024103 29 37 4.8 9.7 0.00 0.00 0.00 60 1019.8
20260509024003 29 39 4.8 9.7 0.00 0.00 0.00 60 1019.9
20260509023903 29 38 4.8 9.7 0.00 0.00 0.00 60 1020.0
20260509023803 29 35 3.2 9.7 0.00 0.00 0.00 60 1019.9
20260509023703 29 32 3.2 6.4 0.00 0.00 0.00 60 1020.0
20260509023625 29 30 3.2 6.4 0.00 0.00 0.00 60 1019.9
20260509023503 29 30 3.2 6.4 0.00 0.00 0.00 60 1019.9
20260509023403 29 28 4.8 6.4 0.00 0.00 0.00 60 1019.9
20260509023303 29 35 4.8 9.7 0.00 0.00 0.00 60 1019.9
20260509023224 29 38 4.8 9.7 0.00 0.00 0.00 60 1019.9
20260509023124 29 41 4.8 9.7 0.00 0.00 0.00 60 1020.0
20260509023003 29 39 4.8 9.7 0.00 0.00 0.00 60 1020.0
20260509022903 29 37 4.8 9.7 0.00 0.00 0.00 60 1020.1
20260509022804 29 40 4.8 9.7 0.00 0.00 0.00 60 1020.1
20260509022703 29 40 4.8 9.7 0.00 0.00 0.00 60 1020.0
20260509022603 29 41 6.4 9.7 0.00 0.00 0.00 60 1020.0
20260509022503 29 40 6.4 9.7 0.00 0.00 0.00 60 1020.0
20260509022403 29 41 6.4 9.7 0.00 0.00 0.00 60 1020.0
20260509022306 29 39 6.4 9.7 0.00 0.00 0.00 60 1020.1
20260509022204 29 33 6.4 9.7 0.00 0.00 0.00 60 1020.1
20260509022103 29 26 6.4 9.7 0.00 0.00 0.00 60 1019.9
20260509022003 29 24 6.4 9.7 0.00 0.00 0.00 60 1020.0
20260509021924 29 25 6.4 9.7 0.00 0.00 0.00 60 1020.1
20260509021824 29 25 6.4 9.7 0.00 0.00 0.00 60 1020.0
20260509021703 29 24 6.4 9.7 0.00 0.00 0.00 60 1020.0
20260509021604 29 22 4.8 9.7 0.00 0.00 0.00 60 1020.1
20260509021525 29 21 4.8 9.7 0.00 0.00 0.00 60 1020.1
20260509021424 29 19 4.8 9.7 0.00 0.00 0.00 60 1020.0
20260509021303 29 18 4.8 9.7 0.00 0.00 0.00 60 1020.0
20260509021203 29 16 4.8 9.7 0.00 0.00 0.00 60 1019.9
20260509021103 29 16 4.8 9.7 0.00 0.00 0.00 60 1020.2
20260509021024 29 11 4.8 9.7 0.00 0.00 0.00 60 1020.0
20260509020903 29 1 4.8 9.7 0.00 0.00 0.00 60 1019.9
20260509020804 29 355 4.8 9.7 0.00 0.00 0.00 60 1020.1
20260509020703 29 350 4.8 9.7 0.00 0.00 0.00 60 1020.1
20260509020603 29 347 4.8 9.7 0.00 0.00 0.00 60 1020.0
20260509020524 29 346 4.8 9.7 0.00 0.00 0.00 60 1020.0
20260509020403 29 343 4.8 9.7 0.00 0.00 0.00 60 1020.1
20260509020303 29 338 4.8 9.7 0.00 0.00 0.00 60 1020.0
20260509020203 29 336 4.8 9.7 0.00 0.00 0.00 60 1020.1
20260509020003 29 330 4.8 9.7 0.00 0.00 0.00 60 1020.1
20260509015903 29 333 4.8 6.4 0.00 0.00 0.00 60 1020.1
20260509015805 29 337 3.2 6.4 0.00 0.00 0.00 60 1020.1
20260509015703 29 344 4.8 6.4 0.00 0.00 0.00 60 1020.1
20260509015603 29 348 4.8 6.4 0.00 0.00 0.00 60 1020.1
20260509015503 29 347 4.8 6.4 0.00 0.00 0.00 60 1020.0
20260509015403 29 351 4.8 6.4 0.00 0.00 0.00 60 1020.1
20260509015325 29 355 4.8 6.4 0.00 0.00 0.00 60 1020.1
20260509015203 29 6 3.2 6.4 0.00 0.00 0.00 60 1020.0
20260509015103 29 20 3.2 6.4 0.00 0.00 0.00 60 1020.1
20260509015003 29 38 3.2 6.4 0.00 0.00 0.00 60 1020.1
20260509014903 29 42 3.2 6.4 0.00 0.00 0.00 60 1020.1
20260509014803 29 46 3.2 6.4 0.00 0.00 0.00 60 1020.1
20260509014703 29 49 3.2 4.8 0.00 0.00 0.00 60 1020.1
20260509014603 29 54 3.2 4.8 0.00 0.00 0.00 60 1020.1
20260509014503 29 54 3.2 4.8 0.00 0.00 0.00 60 1020.0
20260509014403 29 55 3.2 4.8 0.00 0.00 0.00 60 1020.1
20260509014303 29 54 3.2 4.8 0.00 0.00 0.00 60 1020.1
20260509014203 29 54 3.2 4.8 0.00 0.00 0.00 60 1020.0
20260509014124 29 55 3.2 4.8 0.00 0.00 0.00 60 1020.1
20260509014005 29 50 3.2 4.8 0.00 0.00 0.00 60 1020.0
20260509013903 29 43 1.6 4.8 0.00 0.00 0.00 60 1020.0
20260509013803 29 39 1.6 4.8 0.00 0.00 0.00 60 1019.9
20260509013703 29 35 1.6 4.8 0.00 0.00 0.00 60 1020.1
20260509013624 29 30 1.6 3.2 0.00 0.00 0.00 60 1020.1
20260509013503 29 28 1.6 3.2 0.00 0.00 0.00 60 1019.9
20260509013403 29 30 1.6 3.2 0.00 0.00 0.00 60 1020.0
20260509013324 29 31 1.6 3.2 0.00 0.00 0.00 60 1020.0
20260509013203 29 31 1.6 3.2 0.00 0.00 0.00 60 1020.1
20260509013103 29 26 1.6 3.2 0.00 0.00 0.00 60 1020.1
20260509013024 29 27 1.6 3.2 0.00 0.00 0.00 60 1019.9
20260509012903 29 32 1.6 3.2 0.00 0.00 0.00 60 1020.0
20260509012803 29 31 1.6 3.2 0.00 0.00 0.00 60 1019.8
20260509012703 29 34 1.6 3.2 0.00 0.00 0.00 60 1020.0
20260509012603 29 35 1.6 3.2 0.00 0.00 0.00 60 1020.1
20260509012524 29 32 1.6 3.2 0.00 0.00 0.00 60 1020.1
20260509012404 29 52 1.6 3.2 0.00 0.00 0.00 60 1020.0
20260509012324 29 56 1.6 3.2 0.00 0.00 0.00 60 1019.8
20260509012203 29 79 1.6 3.2 0.00 0.00 0.00 60 1019.9
20260509012103 29 115 1.6 3.2 0.00 0.00 0.00 60 1019.9
20260509012003 29 127 1.6 3.2 0.00 0.00 0.00 60 1020.0
20260509011904 29 157 1.6 3.2 0.00 0.00 0.00 60 1019.9
20260509011803 29 157 1.6 3.2 0.00 0.00 0.00 60 1019.9
20260509011704 29 165 1.6 3.2 0.00 0.00 0.00 60 1019.9
20260509011603 29 156 1.6 3.2 0.00 0.00 0.00 60 1020.0
20260509011503 29 154 1.6 3.2 0.00 0.00 0.00 60 1019.9
20260509011403 29 140 1.6 3.2 0.00 0.00 0.00 60 1020.0
20260509011303 29 140 1.6 4.8 0.00 0.00 0.00 60 1020.0
20260509011203 29 138 1.6 4.8 0.00 0.00 0.00 60 1019.9
20260509011103 29 147 1.6 4.8 0.00 0.00 0.00 60 1019.8
20260509011004 29 152 3.2 4.8 0.00 0.00 0.00 60 1019.6
20260509010903 29 149 3.2 4.8 0.00 0.00 0.00 60 1019.6
20260509010803 29 127 1.6 4.8 0.00 0.00 0.00 60 1019.8
20260509010704 29 122 3.2 4.8 0.00 0.00 0.00 60 1019.7
20260509010604 29 134 1.6 4.8 0.00 0.00 0.00 60 1019.7
20260509010503 29 116 1.6 4.8 0.00 0.00 0.00 60 1019.7
20260509010403 29 221 1.6 4.8 0.00 0.00 0.00 60 1019.8
20260509010303 29 281 1.6 3.2 0.00 0.00 0.00 60 1019.6
20260509010203 29 264 1.6 3.2 0.00 0.00 0.00 60 1019.8
20260509010103 29 312 1.6 3.2 0.00 0.00 0.00 60 1019.8
20260509010004 29 126 1.6 3.2 0.00 0.00 0.00 60 1019.7
20260509005925 29 106 1.6 3.2 0.00 0.00 0.00 60 1019.7
20260509005824 29 128 1.6 3.2 0.00 0.00 0.00 60 1019.5
20260509005703 29 147 1.6 3.2 0.00 0.00 0.00 60 1019.6
20260509005624 29 155 1.6 3.2 0.00 0.00 0.00 60 1019.6
20260509005503 29 174 1.6 3.2 0.00 0.00 0.00 60 1019.7
20260509005403 29 197 1.6 3.2 0.00 0.00 0.00 60 1019.6
20260509005324 29 202 1.6 3.2 0.00 0.00 0.00 60 1019.8
20260509005224 29 209 1.6 3.2 0.00 0.00 0.00 60 1019.8
20260509005103 29 204 1.6 3.2 0.00 0.00 0.00 60 1019.6
20260509005024 29 223 1.6 3.2 0.00 0.00 0.00 60 1019.8
20260509004903 29 230 1.6 3.2 0.00 0.00 0.00 60 1019.6
20260509004803 29 231 1.6 3.2 0.00 0.00 0.00 60 1019.5
20260509004703 29 232 1.6 3.2 0.00 0.00 0.00 60 1019.7
20260509004603 29 231 1.6 3.2 0.00 0.00 0.00 60 1019.7
20260509004503 29 208 1.6 3.2 0.00 0.00 0.00 60 1019.6
20260509004403 29 182 1.6 3.2 0.00 0.00 0.00 60 1019.6
20260509004303 29 158 1.6 3.2 0.00 0.00 0.00 60 1019.6
20260509004203 29 135 1.6 4.8 0.00 0.00 0.00 60 1019.6
20260509004104 29 128 1.6 4.8 0.00 0.00 0.00 60 1019.6
20260509004003 29 119 1.6 4.8 0.00 0.00 0.00 60 1019.6
20260509003905 29 111 3.2 4.8 0.00 0.00 0.00 60 1019.5
20260509003803 29 106 3.2 4.8 0.00 0.00 0.00 60 1019.7
20260509003703 29 112 3.2 4.8 0.00 0.00 0.00 60 1019.6
20260509003604 29 112 3.2 4.8 0.00 0.00 0.00 60 1019.6
20260509003503 29 108 3.2 4.8 0.00 0.00 0.00 60 1019.5
20260509003403 29 108 3.2 4.8 0.00 0.00 0.00 60 1019.5
20260509003324 29 108 3.2 4.8 0.00 0.00 0.00 60 1019.4
20260509003224 29 106 3.2 4.8 0.00 0.00 0.00 60 1019.6
20260509003103 29 115 4.8 4.8 0.00 0.00 0.00 60 1019.5
20260509003003 29 120 4.8 4.8 0.00 0.00 0.00 60 1019.5
20260509002903 29 122 4.8 4.8 0.00 0.00 0.00 60 1019.5
20260509002803 29 124 4.8 4.8 0.00 0.00 0.00 60 1019.6
20260509002704 29 128 4.8 4.8 0.00 0.00 0.00 60 1019.5
20260509002603 29 133 4.8 4.8 0.00 0.00 0.00 60 1019.5
20260509002524 29 132 4.8 4.8 0.00 0.00 0.00 60 1019.5
20260509002403 29 134 3.2 4.8 0.00 0.00 0.00 60 1019.2
20260509002324 29 134 3.2 4.8 0.00 0.00 0.00 60 1019.4
20260509002204 29 134 3.2 4.8 0.00 0.00 0.00 60 1019.5
20260509002103 29 132 3.2 4.8 0.00 0.00 0.00 60 1019.5
20260509002004 29 128 3.2 4.8 0.00 0.00 0.00 60 1019.4
20260509001903 29 122 1.6 4.8 0.00 0.00 0.00 60 1019.5
20260509001824 29 117 1.6 4.8 0.00 0.00 0.00 60 1019.5
20260509001704 29 88 1.6 3.2 0.00 0.00 0.00 60 1019.2
20260509001624 29 358 1.6 3.2 0.00 0.00 0.00 60 1019.0
20260509001503 29 313 1.6 3.2 0.00 0.00 0.00 60 1019.2
20260509001403 29 295 1.6 3.2 0.00 0.00 0.00 60 1019.1
20260509001303 29 293 1.6 3.2 0.00 0.00 0.00 60 1019.1
20260509001203 29 289 1.6 1.6 0.00 0.00 0.00 60 1019.1
20260509001103 29 288 1.6 1.6 0.00 0.00 0.00 60 1019.1
20260509001003 29 290 1.6 1.6 0.00 0.00 0.00 60 1019.2
20260509000924 29 290 1.6 1.6 0.00 0.00 0.00 60 1019.2
20260509000803 29 291 1.6 1.6 0.00 0.00 0.00 60 1019.1
20260509000724 29 288 1.6 3.2 0.00 0.00 0.00 60 1019.2
20260509000603 29 279 1.6 3.2 0.00 0.00 0.00 60 1018.9
20260509000503 29 277 1.6 3.2 0.00 0.00 0.00 60 1018.9
20260509000425 29 274 1.6 3.2 0.00 0.00 0.00 60 1018.9
20260509000304 29 272 1.6 3.2 0.00 0.00 0.00 60 1019.0
20260509000226 29 268 3.2 4.8 0.00 0.00 0.00 60 1019.0
20260509000126 29 266 3.2 4.8 0.00 0.00 0.00 60 1019.1
20260509000003 29 266 3.2 4.8 0.00 0.00 0.00 60 1018.9
20260508235924 29 267 3.2 4.8 0.00 0.00 0.00 60 1019.0
20260508235803 29 266 3.2 4.8 0.00 0.00 0.00 60 1019.0
20260508235703 29 266 3.2 4.8 0.00 0.00 0.00 60 1019.0
20260508235603 29 268 3.2 4.8 0.00 0.00 0.00 60 1019.0
20260508235503 29 268 3.2 4.8 0.00 0.00 0.00 60 1019.0
20260508235403 29 270 3.2 4.8 0.00 0.00 0.00 60 1019.0
20260508235324 29 270 3.2 4.8 0.00 0.00 0.00 60 1019.0
20260508235203 29 273 3.2 4.8 0.00 0.00 0.00 60 1019.0
20260508235103 29 278 1.6 3.2 0.00 0.00 0.00 60 1018.8
20260508235003 29 280 1.6 3.2 0.00 0.00 0.00 60 1018.9
20260508234903 29 279 1.6 3.2 0.00 0.00 0.00 60 1018.9
20260508234803 29 279 1.6 3.2 0.00 0.00 0.00 60 1018.9
20260508234703 29 275 1.6 3.2 0.00 0.00 0.00 60 1018.8
20260508234603 29 275 1.6 3.2 0.00 0.00 0.00 60 1018.7
20260508234504 29 277 1.6 3.2 0.00 0.00 0.00 60 1018.7
20260508234404 29 276 1.6 3.2 0.00 0.00 0.00 60 1018.7
20260508234303 29 274 1.6 3.2 0.00 0.00 0.00 60 1018.8
20260508234203 29 274 1.6 3.2 0.00 0.00 0.00 60 1018.7
20260508234103 29 272 1.6 3.2 0.00 0.00 0.00 60 1018.6
20260508234024 29 271 1.6 3.2 0.00 0.00 0.00 60 1018.6
20260508233903 29 267 1.6 3.2 0.00 0.00 0.00 60 1018.7
20260508233803 29 264 0.0 3.2 0.00 0.00 0.00 60 1018.6
20260508233703 29 278 0.0 1.6 0.00 0.00 0.00 60 1018.6
20260508233603 29 263 0.0 1.6 0.00 0.00 0.00 60 1018.6
20260508233503 29 0 0.0 0.0 0.00 0.00 0.00 60 1018.6
20260508233424 29 0 0.0 0.0 0.00 0.00 0.00 60 1018.5
20260508233303 29 0 0.0 0.0 0.00 0.00 0.00 60 1018.6
20260508233203 29 0 0.0 0.0 0.00 0.00 0.00 60 1018.6
20260508233103 29 293 0.0 1.6 0.00 0.00 0.00 60 1018.4
20260508233003 29 293 0.0 1.6 0.00 0.00 0.00 60 1018.5
20260508232903 29 293 0.0 1.6 0.00 0.00 0.00 60 1018.5
20260508232803 29 293 0.0 1.6 0.00 0.00 0.00 60 1018.3
20260508232705 29 293 0.0 1.6 0.00 0.00 0.00 60 1018.4
20260508232603 29 293 0.0 1.6 0.00 0.00 0.00 60 1018.4
20260508232503 29 293 0.0 1.6 0.00 0.00 0.00 60 1018.4
20260508232403 29 293 0.0 1.6 0.00 0.00 0.00 60 1018.5
20260508232306 29 293 0.0 1.6 0.00 0.00 0.00 60 1018.4
20260508232203 29 293 0.0 1.6 0.00 0.00 0.00 60 1018.3
20260508232103 29 292 0.0 1.6 0.00 0.00 0.00 60 1018.4
20260508232024 29 292 0.0 1.6 0.00 0.00 0.00 60 1018.3
20260508231903 29 292 0.0 1.6 0.00 0.00 0.00 60 1018.4
20260508231803 29 292 0.0 1.6 0.00 0.00 0.00 60 1018.4
20260508231703 29 292 0.0 1.6 0.00 0.00 0.00 60 1018.4
20260508231603 29 292 0.0 1.6 0.00 0.00 0.00 60 1018.1
20260508231503 29 292 0.0 1.6 0.00 0.00 0.00 60 1018.1
20260508231403 29 292 0.0 1.6 0.00 0.00 0.00 60 1018.0
20260508231303 29 291 0.0 3.2 0.00 0.00 0.00 60 1018.0
20260508231203 29 291 0.0 3.2 0.00 0.00 0.00 60 1018.3
20260508231103 29 290 0.0 3.2 0.00 0.00 0.00 60 1018.3
20260508231003 29 284 0.0 3.2 0.00 0.00 0.00 60 1018.1
20260508230903 29 284 0.0 3.2 0.00 0.00 0.00 60 1018.1
20260508230824 29 284 0.0 3.2 0.00 0.00 0.00 60 1018.3
20260508230703 29 284 0.0 3.2 0.00 0.00 0.00 60 1018.0
20260508230603 29 284 0.0 3.2 0.00 0.00 0.00 60 1018.0
20260508230503 29 286 0.0 3.2 0.00 0.00 0.00 60 1018.0
20260508230403 29 286 0.0 3.2 0.00 0.00 0.00 60 1017.8
20260508230303 29 286 0.0 1.6 0.00 0.00 0.00 60 1017.9
20260508230224 29 286 0.0 1.6 0.00 0.00 0.00 60 1018.1
20260508230103 29 288 0.0 1.6 0.00 0.00 0.00 60 1018.0
20260508230004 29 292 0.0 1.6 0.00 0.00 0.00 60 1018.1
20260508225905 29 291 0.0 1.6 0.00 0.00 0.00 60 1018.1
20260508225824 29 289 0.0 1.6 0.00 0.00 0.00 60 1018.0
20260508225703 29 287 1.6 1.6 0.00 0.00 0.00 60 1018.0
20260508225603 29 287 1.6 1.6 0.00 0.00 0.00 60 1017.9
20260508225503 29 286 0.0 1.6 0.00 0.00 0.00 60 1017.8
20260508225403 29 286 0.0 1.6 0.00 0.00 0.00 60 1018.1
20260508225324 29 285 0.0 1.6 0.00 0.00 0.00 60 1018.1
20260508225203 29 283 0.0 1.6 0.00 0.00 0.00 60 1018.1
20260508225104 29 281 0.0 1.6 0.00 0.00 0.00 60 1017.9
20260508225003 29 279 0.0 1.6 0.00 0.00 0.00 60 1017.9
20260508224903 29 281 0.0 1.6 0.00 0.00 0.00 60 1017.9
20260508224803 29 284 0.0 1.6 0.00 0.00 0.00 60 1017.8
20260508224703 29 293 0.0 1.6 0.00 0.00 0.00 60 1017.8
20260508224603 29 289 0.0 1.6 0.00 0.00 0.00 60 1017.9
20260508224503 29 288 0.0 1.6 0.00 0.00 0.00 60 1017.9
20260508224425 29 285 0.0 1.6 0.00 0.00 0.00 60 1017.8
20260508224303 29 280 1.6 3.2 0.00 0.00 0.00 60 1017.8
20260508224204 29 279 1.6 3.2 0.00 0.00 0.00 60 1017.8
20260508224103 29 279 1.6 3.2 0.00 0.00 0.00 60 1017.7
20260508224003 29 280 1.6 3.2 0.00 0.00 0.00 60 1017.8
20260508223903 29 280 1.6 3.2 0.00 0.00 0.00 60 1017.7
20260508223803 29 280 1.6 3.2 0.00 0.00 0.00 60 1017.8
20260508223703 29 279 1.6 3.2 0.00 0.00 0.00 60 1017.6
20260508223625 29 279 1.6 3.2 0.00 0.00 0.00 60 1017.6
20260508223524 29 279 1.6 3.2 0.00 0.00 0.00 60 1017.7
20260508223403 29 278 1.6 3.2 0.00 0.00 0.00 60 1017.5
20260508223303 29 281 1.6 3.2 0.00 0.00 0.00 60 1017.6
20260508223203 29 282 1.6 3.2 0.00 0.00 0.00 60 1017.6
20260508223103 29 283 1.6 1.6 0.00 0.00 0.00 60 1017.6
20260508223003 29 281 0.0 1.6 0.00 0.00 0.00 60 1017.7
20260508222924 29 279 0.0 1.6 0.00 0.00 0.00 60 1017.7
20260508222803 29 279 0.0 1.6 0.00 0.00 0.00 60 1017.7
20260508222703 29 281 0.0 1.6 0.00 0.00 0.00 60 1017.5
20260508222604 29 282 0.0 1.6 0.00 0.00 0.00 60 1017.6
20260508222503 29 282 0.0 1.6 0.00 0.00 0.00 60 1017.6
20260508222403 29 287 0.0 1.6 0.00 0.00 0.00 60 1017.4
20260508222306 29 287 0.0 1.6 0.00 0.00 0.00 60 1017.5
20260508222203 29 292 0.0 1.6 0.00 0.00 0.00 60 1017.5
20260508222104 29 290 0.0 1.6 0.00 0.00 0.00 60 1017.5
20260508222003 29 291 0.0 1.6 0.00 0.00 0.00 60 1017.3
20260508221924 29 291 0.0 1.6 0.00 0.00 0.00 60 1017.4
20260508221803 29 291 1.6 1.6 0.00 0.00 0.00 60 1017.4
20260508221703 29 291 1.6 1.6 0.00 0.00 0.00 60 1017.4
20260508221624 29 291 1.6 1.6 0.00 0.00 0.00 60 1017.5
20260508221525 29 291 1.6 1.6 0.00 0.00 0.00 60 1017.3
20260508221403 29 291 1.6 1.6 0.00 0.00 0.00 60 1017.3
20260508221324 29 291 1.6 1.6 0.00 0.00 0.00 60 1017.3
20260508221203 29 291 1.6 1.6 0.00 0.00 0.00 60 1017.4
20260508221124 29 292 1.6 1.6 0.00 0.00 0.00 60 1017.5
20260508221003 29 293 1.6 1.6 0.00 0.00 0.00 60 1017.4
20260508220904 29 293 1.6 1.6 0.00 0.00 0.00 60 1017.4
20260508220824 29 293 1.6 1.6 0.00 0.00 0.00 60 1017.5
20260508220724 29 293 0.0 1.6 0.00 0.00 0.00 60 1017.5
20260508220604 29 276 0.0 1.6 0.00 0.00 0.00 60 1017.4
20260508220505 29 269 0.0 1.6 0.00 0.00 0.00 60 1017.4
20260508220404 29 257 1.6 1.6 0.00 0.00 0.00 60 1017.4
20260508220303 29 255 1.6 1.6 0.00 0.00 0.00 60 1017.4
20260508220204 29 251 0.0 1.6 0.00 0.00 0.00 60 1017.3
20260508220104 29 239 0.0 1.6 0.00 0.00 0.00 60 1017.3
20260508220004 29 232 0.0 1.6 0.00 0.00 0.00 60 1017.4
20260508215903 29 238 0.0 1.6 0.00 0.00 0.00 60 1017.3
20260508215803 29 243 0.0 1.6 0.00 0.00 0.00 60 1017.2
20260508215725 29 243 0.0 1.6 0.00 0.00 0.00 60 1017.2
20260508215603 29 250 0.0 1.6 0.00 0.00 0.00 60 1017.1
20260508215503 29 260 0.0 1.6 0.00 0.00 0.00 60 1017.1
20260508215404 29 288 0.0 1.6 0.00 0.00 0.00 60 1017.2
20260508215306 29 291 0.0 1.6 0.00 0.00 0.00 60 1017.2
20260508215203 29 292 0.0 1.6 0.00 0.00 0.00 60 1017.3
20260508215103 29 300 0.0 1.6 0.00 0.00 0.00 60 1017.1
20260508215003 29 300 0.0 1.6 0.00 0.00 0.00 60 1016.9
20260508214904 29 300 0.0 1.6 0.00 0.00 0.00 60 1016.9
20260508214803 29 307 0.0 1.6 0.00 0.00 0.00 60 1017.1
20260508214703 29 307 0.0 1.6 0.00 0.00 0.00 60 1017.1
20260508214603 29 307 0.0 1.6 0.00 0.00 0.00 60 1017.0
20260508214503 29 307 0.0 1.6 0.00 0.00 0.00 60 1017.0
20260508214403 29 314 0.0 1.6 0.00 0.00 0.00 60 1017.1
20260508214304 29 318 0.0 1.6 0.00 0.00 0.00 60 1017.2
20260508214225 29 318 0.0 1.6 0.00 0.00 0.00 60 1016.9
20260508214103 29 0 0.0 0.0 0.00 0.00 0.00 60 1017.0
20260508214024 29 0 0.0 0.0 0.00 0.00 0.00 60 1017.1
20260508213903 29 32 0.0 1.6 0.00 0.00 0.00 60 1017.1
20260508213804 29 32 0.0 1.6 0.00 0.00 0.00 60 1017.1
20260508213703 29 32 0.0 1.6 0.00 0.00 0.00 60 1017.1
20260508213604 29 32 0.0 1.6 0.00 0.00 0.00 60 1017.1
20260508213504 29 32 0.0 1.6 0.00 0.00 0.00 60 1016.9
20260508213424 29 32 0.0 1.6 0.00 0.00 0.00 60 1017.2
20260508213304 29 34 0.0 1.6 0.00 0.00 0.00 60 1017.1
20260508213203 29 34 0.0 1.6 0.00 0.00 0.00 60 1017.0
20260508213103 29 34 0.0 1.6 0.00 0.00 0.00 60 1016.9
20260508213003 29 35 0.0 1.6 0.00 0.00 0.00 60 1017.0
20260508212925 29 35 0.0 1.6 0.00 0.00 0.00 60 1017.0
20260508212803 29 34 1.6 1.6 0.00 0.00 0.00 60 1017.0
20260508212703 29 33 1.6 1.6 0.00 0.00 0.00 60 1017.1
20260508212603 29 30 1.6 1.6 0.00 0.00 0.00 60 1017.0
20260508212504 29 30 1.6 1.6 0.00 0.00 0.00 60 1017.0
20260508212404 29 30 1.6 1.6 0.00 0.00 0.00 60 1017.1
20260508212306 29 29 1.6 1.6 0.00 0.00 0.00 60 1016.9
20260508212203 29 21 0.0 1.6 0.00 0.00 0.00 60 1017.0
20260508212104 29 9 1.6 1.6 0.00 0.00 0.00 60 1017.0
20260508212003 29 344 1.6 1.6 0.00 0.00 0.00 60 1017.0
20260508211925 29 326 1.6 1.6 0.00 0.00 0.00 60 1017.1
20260508211826 29 308 0.0 1.6 0.00 0.00 0.00 60 1017.1
20260508211724 29 308 0.0 1.6 0.00 0.00 0.00 60 1016.9
20260508211603 29 288 0.0 1.6 0.00 0.00 0.00 60 1016.7
20260508211525 29 289 0.0 1.6 0.00 0.00 0.00 60 1016.9
20260508211403 29 290 0.0 1.6 0.00 0.00 0.00 60 1016.9
20260508211303 29 290 0.0 1.6 0.00 0.00 0.00 60 1016.9
20260508211203 29 290 0.0 1.6 0.00 0.00 0.00 60 1017.0
20260508211124 29 291 0.0 1.6 0.00 0.00 0.00 60 1017.0
20260508211003 29 293 0.0 1.6 0.00 0.00 0.00 60 1016.9
20260508210904 29 293 0.0 1.6 0.00 0.00 0.00 60 1016.9
20260508210803 29 293 0.0 1.6 0.00 0.00 0.00 60 1016.9
20260508210704 29 292 0.0 1.6 0.00 0.00 0.00 60 1017.0
20260508210604 29 292 0.0 1.6 0.00 0.00 0.00 60 1017.0
20260508210503 29 292 0.0 1.6 0.00 0.00 0.00 60 1017.0
20260508210403 29 291 0.0 1.6 0.00 0.00 0.00 60 1016.6
20260508210324 29 291 1.6 1.6 0.00 0.00 0.00 60 1017.0
20260508210204 29 290 1.6 1.6 0.00 0.00 0.00 60 1016.9
20260508210103 29 291 1.6 1.6 0.00 0.00 0.00 60 1016.9
20260508210004 29 292 1.6 1.6 0.00 0.00 0.00 60 1016.9
20260508205926 29 292 1.6 1.6 0.00 0.00 0.00 60 1016.9
20260508205803 29 292 1.6 1.6 0.00 0.00 0.00 60 1017.1
20260508205703 29 292 1.6 1.6 0.00 0.00 0.00 60 1017.1
20260508205603 29 288 1.6 3.2 0.00 0.00 0.00 60 1016.9
20260508205503 29 283 1.6 3.2 0.00 0.00 0.00 60 1016.9
20260508205403 29 281 1.6 3.2 0.00 0.00 0.00 60 1017.0
20260508205306 29 281 1.6 3.2 0.00 0.00 0.00 60 1017.0
20260508205203 29 281 1.6 3.2 0.00 0.00 0.00 60 1017.0
20260508205104 29 280 1.6 3.2 0.00 0.00 0.00 60 1016.9
20260508205024 29 280 1.6 3.2 0.00 0.00 0.00 60 1016.9
20260508204904 29 281 3.2 3.2 0.00 0.00 0.00 60 1016.7
20260508204803 29 282 3.2 3.2 0.00 0.00 0.00 60 1017.1
20260508204724 29 281 1.6 3.2 0.00 0.00 0.00 60 1016.9
20260508204603 29 283 1.6 3.2 0.00 0.00 0.00 60 1017.0
20260508204503 29 285 1.6 3.2 0.00 0.00 0.00 60 1017.0
20260508204403 29 290 1.6 3.2 0.00 0.00 0.00 60 1017.1
20260508204305 29 293 1.6 3.2 0.00 0.00 0.00 60 1016.9
20260508204224 29 295 1.6 3.2 0.00 0.00 0.00 60 1016.9
20260508204124 29 296 0.0 3.2 0.00 0.00 0.00 60 1016.9
20260508204003 29 298 0.0 3.2 0.00 0.00 0.00 60 1017.1
20260508203925 29 302 0.0 3.2 0.00 0.00 0.00 60 1017.0
20260508203803 29 0 0.0 0.0 0.00 0.00 0.00 60 1017.0
20260508203704 29 0 0.0 0.0 0.00 0.00 0.00 60 1017.0
20260508203604 29 0 0.0 0.0 0.00 0.00 0.00 60 1016.9
20260508203503 29 298 0.0 1.6 0.00 0.00 0.00 60 1017.0
20260508203403 29 298 0.0 1.6 0.00 0.00 0.00 60 1017.0
20260508203303 29 298 0.0 1.6 0.00 0.00 0.00 60 1017.0
20260508203203 29 297 0.0 1.6 0.00 0.00 0.00 60 1017.0
20260508203103 29 298 0.0 1.6 0.00 0.00 0.00 60 1016.9
20260508203003 29 298 0.0 1.6 0.00 0.00 0.00 60 1017.1
20260508202903 29 296 0.0 1.6 0.00 0.00 0.00 60 1017.1
20260508202824 29 297 0.0 1.6 0.00 0.00 0.00 60 1017.0
20260508202724 29 297 0.0 1.6 0.00 0.00 0.00 60 1017.0
20260508202604 29 297 1.6 1.6 0.00 0.00 0.00 60 1016.9
20260508202503 29 297 1.6 1.6 0.00 0.00 0.00 60 1016.9
20260508202403 29 297 0.0 1.6 0.00 0.00 0.00 60 1017.1
20260508202306 29 297 0.0 1.6 0.00 0.00 0.00 60 1016.7
20260508202204 29 297 0.0 1.6 0.00 0.00 0.00 60 1017.0
20260508202103 29 297 0.0 1.6 0.00 0.00 0.00 60 1017.0
20260508202004 29 297 0.0 1.6 0.00 0.00 0.00 60 1017.0
20260508201903 29 300 0.0 1.6 0.00 0.00 0.00 60 1017.1
20260508201824 29 301 0.0 1.6 0.00 0.00 0.00 60 1016.9
20260508201703 29 302 0.0 1.6 0.00 0.00 0.00 60 1017.1
20260508201603 29 302 0.0 1.6 0.00 0.00 0.00 60 1017.0
20260508201503 29 302 0.0 1.6 0.00 0.00 0.00 60 1017.0
20260508201403 29 301 0.0 1.6 0.00 0.00 0.00 60 1016.9
20260508201303 29 301 0.0 1.6 0.00 0.00 0.00 60 1016.7
20260508201203 29 302 1.6 1.6 0.00 0.00 0.00 60 1016.9
20260508201104 29 307 1.6 3.2 0.00 0.00 0.00 60 1017.0
20260508201003 29 307 1.6 3.2 0.00 0.00 0.00 60 1016.6
20260508200903 29 304 1.6 3.2 0.00 0.00 0.00 60 1016.7
20260508200803 29 302 1.6 3.2 0.00 0.00 0.00 60 1016.9
20260508200724 29 300 1.6 3.2 0.00 0.00 0.00 60 1016.9
20260508200603 29 301 1.6 3.2 0.00 0.00 0.00 60 1016.9
20260508200525 29 303 1.6 3.2 0.00 0.00 0.00 60 1016.9
20260508200403 29 306 1.6 3.2 0.00 0.00 0.00 60 1016.9
20260508200305 29 310 1.6 3.2 0.00 0.00 0.00 60 1016.7
20260508200203 29 312 1.6 3.2 0.00 0.00 0.00 60 1016.9
20260508200103 29 315 1.6 3.2 0.00 0.00 0.00 60 1016.9
20260508200004 29 318 1.6 3.2 0.00 0.00 0.00 60 1016.9
20260508195903 29 328 1.6 3.2 0.00 0.00 0.00 60 1017.0
20260508195824 29 345 1.6 1.6 0.00 0.00 0.00 60 1016.7
20260508195703 29 360 1.6 1.6 0.00 0.00 0.00 60 1017.0
20260508195624 29 357 0.0 1.6 0.00 0.00 0.00 60 1016.9
20260508195503 29 350 1.6 1.6 0.00 0.00 0.00 60 1016.7
20260508195403 29 350 1.6 1.6 0.00 0.00 0.00 60 1016.9
20260508195306 29 355 1.6 3.2 0.00 0.00 0.00 60 1016.9
20260508195224 29 357 1.6 3.2 0.00 0.00 0.00 60 1016.9
20260508195104 29 5 1.6 3.2 0.00 0.00 0.00 60 1017.0
20260508195003 29 8 1.6 3.2 0.00 0.00 0.00 60 1017.1
20260508194904 29 8 1.6 3.2 0.00 0.00 0.00 60 1017.1
20260508194803 29 8 1.6 3.2 0.00 0.00 0.00 60 1017.1
20260508194703 29 8 0.0 3.2 0.00 0.00 0.00 60 1017.0
20260508194624 29 8 0.0 3.2 0.00 0.00 0.00 60 1017.1
20260508194503 29 14 0.0 3.2 0.00 0.00 0.00 60 1017.1
20260508194426 29 16 0.0 3.2 0.00 0.00 0.00 60 1017.1
20260508194303 29 352 0.0 1.6 0.00 0.00 0.00 60 1017.2
20260508194203 29 317 0.0 1.6 0.00 0.00 0.00 60 1017.1
20260508194103 29 317 0.0 1.6 0.00 0.00 0.00 60 1017.1
20260508194003 29 317 0.0 1.6 0.00 0.00 0.00 60 1016.9
20260508193903 29 317 1.6 1.6 0.00 0.00 0.00 60 1017.2
20260508193824 29 317 1.6 1.6 0.00 0.00 0.00 60 1017.2
20260508193703 29 317 1.6 1.6 0.00 0.00 0.00 60 1017.1
20260508193624 29 317 1.6 1.6 0.00 0.00 0.00 60 1017.2
20260508193503 29 317 1.6 1.6 0.00 0.00 0.00 60 1017.2
20260508193424 29 317 1.6 1.6 0.00 0.00 0.00 60 1017.1
20260508193303 29 318 1.6 1.6 0.00 0.00 0.00 60 1017.3
20260508193224 29 318 1.6 1.6 0.00 0.00 0.00 60 1017.2
20260508193103 29 318 1.6 1.6 0.00 0.00 0.00 60 1017.2
20260508193003 29 318 1.6 1.6 0.00 0.00 0.00 60 1017.1
20260508192903 29 318 1.6 1.6 0.00 0.00 0.00 60 1017.1
20260508192803 29 319 0.0 1.6 0.00 0.00 0.00 60 1017.3
20260508192724 29 319 0.0 1.6 0.00 0.00 0.00 60 1017.2
20260508192603 29 334 0.0 1.6 0.00 0.00 0.00 60 1017.2
20260508192526 29 340 0.0 1.6 0.00 0.00 0.00 60 1017.2
20260508192403 29 8 0.0 1.6 0.00 0.00 0.00 60 1017.3
20260508192324 29 124 0.0 3.2 0.00 0.00 0.00 60 1017.1
20260508192203 29 168 1.6 3.2 0.00 0.00 0.00 60 1017.3
20260508192104 29 171 1.6 3.2 0.00 0.00 0.00 60 1017.3
20260508192003 29 140 1.6 3.2 0.00 0.00 0.00 60 1017.3
20260508191903 29 129 1.6 3.2 0.00 0.00 0.00 60 1017.4
20260508191804 29 138 1.6 3.2 0.00 0.00 0.00 60 1017.3
20260508191704 29 152 1.6 3.2 0.00 0.00 0.00 60 1017.3
20260508191624 29 171 1.6 4.8 0.00 0.00 0.00 60 1017.3
20260508191503 29 201 3.2 4.8 0.00 0.00 0.00 60 1017.3
20260508191424 29 206 3.2 4.8 0.00 0.00 0.00 60 1017.3
20260508191325 29 208 3.2 4.8 0.00 0.00 0.00 60 1017.3
20260508191203 29 216 3.2 4.8 0.00 0.00 0.00 60 1017.4
20260508191103 29 215 3.2 4.8 0.00 0.00 0.00 60 1017.3
20260508191003 29 224 3.2 4.8 0.00 0.00 0.00 60 1017.2
20260508190905 29 221 3.2 4.8 0.00 0.00 0.00 60 1017.2
20260508190803 29 219 3.2 4.8 0.00 0.00 0.00 60 1017.3
20260508190703 29 223 3.2 4.8 0.00 0.00 0.00 60 1017.2
20260508190603 29 224 3.2 4.8 0.00 0.00 0.00 60 1017.4
20260508190504 29 217 3.2 4.8 0.00 0.00 0.00 60 1017.4
20260508190403 29 202 3.2 6.4 0.00 0.00 0.00 60 1017.3
20260508190324 29 191 4.8 9.7 0.00 0.00 0.00 60 1017.3
20260508190203 29 178 4.8 9.7 0.00 0.00 0.00 60 1017.4
20260508190103 29 174 4.8 9.7 0.00 0.00 0.00 60 1017.4
20260508190003 29 173 4.8 9.7 0.00 0.00 0.00 60 1017.2
20260508185903 29 173 6.4 9.7 0.00 0.00 0.00 60 1017.2
20260508185803 29 169 6.4 9.7 0.00 0.00 0.00 60 1017.4
20260508185703 29 167 6.4 9.7 0.00 0.00 0.00 60 1017.3
20260508185603 29 170 6.4 9.7 0.00 0.00 0.00 60 1017.3
20260508185503 29 172 6.4 9.7 0.00 0.00 0.00 60 1017.4
20260508185424 29 173 6.4 9.7 0.00 0.00 0.00 60 1017.3
20260508185306 29 181 6.4 9.7 0.00 0.00 0.00 60 1017.3
20260508185203 29 184 6.4 9.7 0.00 0.00 0.00 60 1017.2
20260508185103 29 191 6.4 9.7 0.00 0.00 0.00 60 1017.4
20260508185003 29 193 4.8 9.7 0.00 0.00 0.00 60 1017.3
20260508184903 29 195 4.8 9.7 0.00 0.00 0.00 60 1017.3
20260508184803 29 197 4.8 9.7 0.00 0.00 0.00 60 1017.4
20260508184703 29 203 4.8 9.7 0.00 0.00 0.00 60 1017.4
20260508184604 29 199 4.8 6.4 0.00 0.00 0.00 60 1017.4
20260508184504 29 200 4.8 4.8 0.00 0.00 0.00 60 1017.4
20260508184404 29 201 4.8 4.8 0.00 0.00 0.00 60 1017.4
20260508184303 29 199 4.8 6.4 0.00 0.00 0.00 60 1017.4
20260508184203 29 199 4.8 6.4 0.00 0.00 0.00 60 1017.4
20260508184103 29 198 4.8 6.4 0.00 0.00 0.00 60 1017.4
20260508184003 29 197 4.8 6.4 0.00 0.00 0.00 60 1017.4
20260508183903 29 198 4.8 6.4 0.00 0.00 0.00 60 1017.4
20260508183803 29 202 4.8 6.4 0.00 0.00 0.00 60 1017.5
20260508183724 29 202 4.8 6.4 0.00 0.00 0.00 60 1017.5
20260508183603 29 208 4.8 6.4 0.00 0.00 0.00 60 1017.5
20260508183504 29 210 4.8 6.4 0.00 0.00 0.00 60 1017.3
20260508183403 29 209 3.2 6.4 0.00 0.00 0.00 60 1017.5
20260508183303 29 214 3.2 4.8 0.00 0.00 0.00 60 1017.6
20260508183205 29 216 3.2 4.8 0.00 0.00 0.00 60 1017.5
20260508183103 29 211 3.2 4.8 0.00 0.00 0.00 60 1017.5
20260508183003 29 206 3.2 4.8 0.00 0.00 0.00 60 1017.4
20260508182903 29 209 3.2 4.8 0.00 0.00 0.00 60 1017.4
20260508182803 29 206 3.2 4.8 0.00 0.00 0.00 60 1017.4
20260508182703 29 199 3.2 6.4 0.00 0.00 0.00 60 1017.3
20260508182603 29 187 3.2 6.4 0.00 0.00 0.00 60 1017.5
20260508182503 29 183 4.8 6.4 0.00 0.00 0.00 60 1017.5
20260508182403 29 178 4.8 9.7 0.00 0.00 0.00 60 1017.4
20260508182324 29 174 4.8 9.7 0.00 0.00 0.00 60 1017.4
20260508182203 29 169 4.8 9.7 0.00 0.00 0.00 60 1017.5
20260508182103 29 167 4.8 9.7 0.00 0.00 0.00 60 1017.5
20260508182004 29 167 4.8 9.7 0.00 0.00 0.00 60 1017.4
20260508181903 29 166 6.4 9.7 0.00 0.00 0.00 60 1017.3
20260508181804 29 163 6.4 9.7 0.00 0.00 0.00 60 1017.4
20260508181703 29 162 4.8 9.7 0.00 0.00 0.00 60 1017.4
20260508181603 29 162 4.8 9.7 0.00 0.00 0.00 60 1017.4
20260508181524 29 163 4.8 9.7 0.00 0.00 0.00 60 1017.4
20260508181403 29 166 4.8 9.7 0.00 0.00 0.00 60 1017.3
20260508181304 29 163 3.2 6.4 0.00 0.00 0.00 60 1017.5
20260508181203 29 165 4.8 6.4 0.00 0.00 0.00 60 1017.5
20260508181124 29 168 3.2 6.4 0.00 0.00 0.00 60 1017.5
20260508181003 29 178 3.2 6.4 0.00 0.00 0.00 60 1017.4
20260508180903 29 171 3.2 6.4 0.00 0.00 0.00 60 1017.4
20260508180803 29 172 3.2 6.4 0.00 0.00 0.00 60 1017.6
20260508180724 29 170 4.8 6.4 0.00 0.00 0.00 60 1017.5
20260508180603 29 169 3.2 6.4 0.00 0.00 0.00 60 1017.5
20260508180503 29 168 3.2 6.4 0.00 0.00 0.00 60 1017.5
20260508180424 29 166 3.2 6.4 0.00 0.00 0.00 60 1017.6
20260508180303 29 172 3.2 6.4 0.00 0.00 0.00 60 1017.6
20260508180224 29 176 3.2 6.4 0.00 0.00 0.00 60 1017.5
20260508180103 29 179 3.2 6.4 0.00 0.00 0.00 60 1017.6
20260508180003 29 181 3.2 6.4 0.00 0.00 0.00 60 1017.6
20260508175903 29 191 3.2 6.4 0.00 0.00 0.00 60 1017.6
20260508175803 29 199 3.2 6.4 0.00 0.00 0.00 60 1017.6
20260508175706 29 206 3.2 6.4 0.00 0.00 0.00 60 1017.6
20260508175603 29 209 3.2 6.4 0.00 0.00 0.00 60 1017.5
20260508175503 29 208 3.2 6.4 0.00 0.00 0.00 60 1017.5
20260508175403 29 207 3.2 6.4 0.00 0.00 0.00 60 1017.6
20260508175306 29 203 3.2 6.4 0.00 0.00 0.00 60 1017.6
20260508175203 29 201 4.8 6.4 0.00 0.00 0.00 60 1017.4
20260508175103 29 201 4.8 6.4 0.00 0.00 0.00 60 1017.5
20260508175004 29 199 4.8 6.4 0.00 0.00 0.00 60 1017.6
20260508174924 29 199 4.8 6.4 0.00 0.00 0.00 60 1017.6
20260508174803 29 199 4.8 6.4 0.00 0.00 0.00 60 1017.5
20260508174703 29 195 4.8 6.4 0.00 0.00 0.00 60 1017.5
20260508174603 29 191 4.8 6.4 0.00 0.00 0.00 60 1017.5
20260508174503 29 189 4.8 6.4 0.00 0.00 0.00 60 1017.5
20260508174403 29 182 4.8 6.4 0.00 0.00 0.00 60 1017.5
20260508174324 29 185 4.8 6.4 0.00 0.00 0.00 60 1017.3
20260508174203 29 180 3.2 6.4 0.00 0.00 0.00 60 1017.4
20260508174124 29 178 3.2 6.4 0.00 0.00 0.00 60 1017.4
20260508174003 29 169 3.2 6.4 0.00 0.00 0.00 60 1017.5
20260508173903 29 165 3.2 6.4 0.00 0.00 0.00 60 1017.4
20260508173824 29 164 3.2 6.4 0.00 0.00 0.00 60 1017.4
20260508173705 29 158 1.6 6.4 0.00 0.00 0.00 60 1017.5
20260508173603 29 157 1.6 3.2 0.00 0.00 0.00 60 1017.6
20260508173503 29 168 1.6 3.2 0.00 0.00 0.00 60 1017.5
20260508173403 29 200 1.6 3.2 0.00 0.00 0.00 60 1017.6
20260508173303 29 230 1.6 3.2 0.00 0.00 0.00 60 1017.5
20260508173203 29 252 1.6 3.2 0.00 0.00 0.00 60 1017.4
20260508173103 29 264 1.6 3.2 0.00 0.00 0.00 60 1017.5
20260508173003 29 263 1.6 3.2 0.00 0.00 0.00 60 1017.7
20260508172903 29 254 1.6 3.2 0.00 0.00 0.00 60 1017.7
20260508172803 29 261 1.6 3.2 0.00 0.00 0.00 60 1017.5
20260508172724 29 257 1.6 3.2 0.00 0.00 0.00 60 1017.6
20260508172603 29 252 1.6 4.8 0.00 0.00 0.00 60 1017.6
20260508172504 29 249 1.6 4.8 0.00 0.00 0.00 60 1017.6
20260508172424 29 247 1.6 4.8 0.00 0.00 0.00 60 1017.6
20260508172307 29 246 1.6 4.8 0.00 0.00 0.00 60 1017.5
20260508172203 29 248 1.6 4.8 0.00 0.00 0.00 60 1017.6
20260508172124 29 249 1.6 4.8 0.00 0.00 0.00 60 1017.6
20260508172003 29 251 1.6 4.8 0.00 0.00 0.00 60 1017.5
20260508171903 29 254 1.6 4.8 0.00 0.00 0.00 60 1017.7
20260508171805 29 249 3.2 6.4 0.00 0.00 0.00 60 1017.6
20260508171703 29 246 3.2 6.4 0.00 0.00 0.00 60 1017.6
20260508171603 29 236 3.2 6.4 0.00 0.00 0.00 60 1017.4
20260508171503 29 230 3.2 6.4 0.00 0.00 0.00 60 1017.6
20260508171403 29 229 3.2 6.4 0.00 0.00 0.00 60 1017.6
20260508171303 29 227 3.2 6.4 0.00 0.00 0.00 60 1017.6
20260508171203 29 221 3.2 6.4 0.00 0.00 0.00 60 1017.6
20260508171103 29 217 3.2 6.4 0.00 0.00 0.00 60 1017.7
20260508171003 29 213 3.2 6.4 0.00 0.00 0.00 60 1017.6
20260508170903 29 211 3.2 6.4 0.00 0.00 0.00 60 1017.6
20260508170803 29 207 3.2 6.4 0.00 0.00 0.00 60 1017.7
20260508170703 29 206 3.2 4.8 0.00 0.00 0.00 60 1017.8
20260508170603 29 210 1.6 4.8 0.00 0.00 0.00 60 1017.7
20260508170503 29 211 1.6 3.2 0.00 0.00 0.00 60 1017.7
20260508170403 29 209 1.6 3.2 0.00 0.00 0.00 60 1017.5
20260508170303 29 206 1.6 3.2 0.00 0.00 0.00 60 1017.6
20260508170203 29 212 1.6 3.2 0.00 0.00 0.00 60 1017.6
20260508170104 29 212 1.6 3.2 0.00 0.00 0.00 60 1017.6
20260508170003 29 212 1.6 3.2 0.00 0.00 0.00 60 1017.4
20260508165924 29 212 1.6 3.2 0.00 0.00 0.00 60 1017.6
20260508165804 29 212 0.0 1.6 0.00 0.00 0.00 60 1017.6
20260508165703 29 211 0.0 1.6 0.00 0.00 0.00 60 1017.6
20260508165603 29 211 1.6 1.6 0.00 0.00 0.00 60 1017.7
20260508165524 29 210 1.6 1.6 0.00 0.00 0.00 60 1017.7
20260508165403 29 211 1.6 3.2 0.00 0.00 0.00 60 1017.7
20260508165306 29 211 1.6 3.2 0.00 0.00 0.00 60 1017.7
20260508165203 29 210 1.6 3.2 0.00 0.00 0.00 60 1017.6
20260508165103 29 216 1.6 3.2 0.00 0.00 0.00 60 1017.6
20260508165004 29 218 1.6 3.2 0.00 0.00 0.00 60 1017.7
20260508164903 29 223 1.6 3.2 0.00 0.00 0.00 60 1017.7
20260508164803 29 231 1.6 3.2 0.00 0.00 0.00 60 1017.7
20260508164703 29 242 1.6 3.2 0.00 0.00 0.00 60 1017.8
20260508164603 29 248 1.6 4.8 0.00 0.00 0.00 60 1017.7
20260508164504 29 251 1.6 4.8 0.00 0.00 0.00 60 1017.7
20260508164403 29 257 3.2 4.8 0.00 0.00 0.00 60 1017.7
20260508164303 29 259 3.2 4.8 0.00 0.00 0.00 60 1017.7
20260508164204 29 265 3.2 4.8 0.00 0.00 0.00 60 1017.8
20260508164124 29 265 3.2 4.8 0.00 0.00 0.00 60 1017.8
20260508164024 29 265 3.2 4.8 0.00 0.00 0.00 60 1017.7
20260508163903 29 264 3.2 4.8 0.00 0.00 0.00 60 1017.8
20260508163803 29 264 3.2 4.8 0.00 0.00 0.00 60 1017.9
20260508163703 29 263 3.2 4.8 0.00 0.00 0.00 60 1017.9
20260508163624 29 260 4.8 4.8 0.00 0.00 0.00 60 1017.8
20260508163503 29 259 3.2 4.8 0.00 0.00 0.00 60 1017.6
20260508163403 29 257 3.2 4.8 0.00 0.00 0.00 60 1017.7
20260508163303 29 254 3.2 4.8 0.00 0.00 0.00 60 1017.7
20260508163224 29 247 3.2 4.8 0.00 0.00 0.00 60 1017.7
20260508163124 29 241 3.2 4.8 0.00 0.00 0.00 60 1017.9
20260508163003 29 235 3.2 4.8 0.00 0.00 0.00 60 1017.8
20260508162903 29 230 3.2 6.4 0.00 0.00 0.00 60 1017.8
20260508162803 29 225 4.8 6.4 0.00 0.00 0.00 60 1017.8
20260508162703 29 224 4.8 6.4 0.00 0.00 0.00 60 1017.8
20260508162603 29 215 4.8 9.7 0.00 0.00 0.00 60 1017.9
20260508162505 29 210 4.8 9.7 0.00 0.00 0.00 60 1017.9
20260508162403 29 206 4.8 9.7 0.00 0.00 0.00 60 1017.8
20260508162306 29 199 4.8 9.7 0.00 0.00 0.00 60 1017.6
20260508162203 29 194 4.8 9.7 0.00 0.00 0.00 60 1017.8
20260508162103 29 190 4.8 9.7 0.00 0.00 0.00 60 1017.8
20260508162003 29 183 6.4 9.7 0.00 0.00 0.00 60 1017.8
20260508161903 29 176 6.4 9.7 0.00 0.00 0.00 60 1017.7
20260508161803 29 169 6.4 9.7 0.00 0.00 0.00 60 1017.8
20260508161703 29 165 6.4 9.7 0.00 0.00 0.00 60 1017.8
20260508161603 29 164 6.4 9.7 0.00 0.00 0.00 60 1017.7
20260508161524 29 165 4.8 9.7 0.00 0.00 0.00 60 1017.8
20260508161403 29 160 4.8 9.7 0.00 0.00 0.00 60 1017.8
20260508161303 29 158 4.8 9.7 0.00 0.00 0.00 60 1017.8
20260508161203 29 155 4.8 9.7 0.00 0.00 0.00 60 1017.8
20260508161103 29 153 4.8 9.7 0.00 0.00 0.00 60 1017.7
20260508161003 29 149 4.8 9.7 0.00 0.00 0.00 60 1017.7
20260508160924 29 146 4.8 6.4 0.00 0.00 0.00 60 1017.8
20260508160804 29 139 3.2 6.4 0.00 0.00 0.00 60 1017.7
20260508160704 29 130 3.2 4.8 0.00 0.00 0.00 60 1017.9
20260508160604 29 124 3.2 4.8 0.00 0.00 0.00 60 1017.9
20260508160503 29 111 3.2 4.8 0.00 0.00 0.00 60 1017.9
20260508160403 29 102 1.6 4.8 0.00 0.00 0.00 60 1017.7
20260508160324 29 97 1.6 4.8 0.00 0.00 0.00 60 1017.7
20260508160203 29 359 1.6 4.8 0.00 0.00 0.00 60 1017.8
20260508160103 29 305 1.6 3.2 0.00 0.00 0.00 60 1017.8
20260508160003 29 279 1.6 4.8 0.00 0.00 0.00 60 1017.9
20260508155904 29 271 3.2 4.8 0.00 0.00 0.00 60 1017.7
20260508155803 29 263 3.2 4.8 0.00 0.00 0.00 60 1017.8
20260508155703 29 264 3.2 4.8 0.00 0.00 0.00 60 1017.8
20260508155603 29 262 3.2 4.8 0.00 0.00 0.00 60 1017.6
20260508155504 29 259 3.2 4.8 0.00 0.00 0.00 60 1017.6
20260508155403 29 258 3.2 4.8 0.00 0.00 0.00 60 1017.7
20260508155306 29 254 3.2 4.8 0.00 0.00 0.00 60 1017.7
20260508155203 29 246 3.2 4.8 0.00 0.00 0.00 60 1017.6
20260508155125 29 235 3.2 4.8 0.00 0.00 0.00 60 1017.5
20260508155004 29 225 3.2 4.8 0.00 0.00 0.00 60 1017.5
20260508154904 29 219 3.2 4.8 0.00 0.00 0.00 60 1017.5
20260508154804 29 184 1.6 4.8 0.00 0.00 0.00 60 1017.5
20260508154704 29 138 1.6 4.8 0.00 0.00 0.00 60 1017.6
20260508154603 29 117 1.6 4.8 0.00 0.00 0.00 60 1017.4
20260508154504 29 107 1.6 4.8 0.00 0.00 0.00 60 1017.4
20260508154403 29 96 1.6 4.8 0.00 0.00 0.00 60 1017.4
20260508154303 29 79 1.6 4.8 0.00 0.00 0.00 60 1017.5
20260508154203 29 28 1.6 4.8 0.00 0.00 0.00 60 1017.5
20260508154103 29 355 1.6 3.2 0.00 0.00 0.00 60 1017.5
20260508154004 29 325 1.6 3.2 0.00 0.00 0.00 60 1017.5
20260508153903 29 316 1.6 3.2 0.00 0.00 0.00 60 1017.6
20260508153803 29 318 1.6 4.8 0.00 0.00 0.00 60 1017.7
20260508153703 29 318 1.6 4.8 0.00 0.00 0.00 60 1017.7
20260508153603 29 317 1.6 4.8 0.00 0.00 0.00 60 1017.5
20260508153525 29 318 1.6 4.8 0.00 0.00 0.00 60 1017.5
20260508153425 29 317 1.6 4.8 0.00 0.00 0.00 60 1017.6
20260508153304 29 318 1.6 4.8 0.00 0.00 0.00 60 1017.5
20260508153203 29 315 1.6 4.8 0.00 0.00 0.00 60 1017.4
20260508153103 29 311 1.6 4.8 0.00 0.00 0.00 60 1017.5
20260508153004 29 302 1.6 4.8 0.00 0.00 0.00 60 1017.4
20260508152903 29 292 3.2 4.8 0.00 0.00 0.00 60 1017.4
20260508152804 29 268 3.2 4.8 0.00 0.00 0.00 60 1017.2
20260508152703 29 242 3.2 6.4 0.00 0.00 0.00 60 1017.4
20260508152603 29 226 3.2 6.4 0.00 0.00 0.00 60 1017.4
20260508152504 29 218 3.2 11.3 0.00 0.00 0.00 60 1017.3
20260508152403 29 215 4.8 11.3 0.00 0.00 0.00 60 1017.3
20260508152306 29 214 4.8 11.3 0.00 0.00 0.00 60 1017.3
20260508152203 29 209 4.8 11.3 0.00 0.00 0.00 60 1017.4
20260508152124 29 208 4.8 11.3 0.00 0.00 0.00 60 1017.4
20260508152024 29 208 6.4 11.3 0.00 0.00 0.00 60 1017.3
20260508151904 29 207 6.4 11.3 0.00 0.00 0.00 60 1017.3
20260508151824 29 207 6.4 11.3 0.00 0.00 0.00 60 1017.4
20260508151724 29 205 6.4 11.3 0.00 0.00 0.00 60 1017.2
20260508151603 29 208 6.4 11.3 0.00 0.00 0.00 60 1017.2
20260508151504 29 206 6.4 9.7 0.00 0.00 0.00 60 1017.3
20260508151403 29 205 6.4 9.7 0.00 0.00 0.00 60 1017.3
20260508151303 29 203 4.8 9.7 0.00 0.00 0.00 60 1017.3
20260508151204 29 201 4.8 9.7 0.00 0.00 0.00 60 1017.2
20260508151124 29 202 4.8 9.7 0.00 0.00 0.00 60 1017.1
20260508151024 29 197 4.8 9.7 0.00 0.00 0.00 60 1017.2
20260508150903 29 195 4.8 9.7 0.00 0.00 0.00 60 1017.0
20260508150824 29 194 4.8 6.4 0.00 0.00 0.00 60 1017.1
20260508150724 29 196 4.8 6.4 0.00 0.00 0.00 60 1017.0
20260508150603 29 193 4.8 6.4 0.00 0.00 0.00 60 1016.9
20260508150504 29 196 4.8 6.4 0.00 0.00 0.00 60 1017.0
20260508150404 29 194 4.8 6.4 0.00 0.00 0.00 60 1017.2
20260508150303 29 197 4.8 6.4 0.00 0.00 0.00 60 1017.0
20260508150204 29 201 4.8 6.4 0.00 0.00 0.00 60 1017.0
20260508150104 29 205 4.8 6.4 0.00 0.00 0.00 60 1017.1
20260508150004 29 210 3.2 6.4 0.00 0.00 0.00 60 1016.7
20260508145903 29 214 4.8 6.4 0.00 0.00 0.00 60 1016.9
20260508145824 29 210 4.8 6.4 0.00 0.00 0.00 60 1017.1
20260508145703 29 207 4.8 6.4 0.00 0.00 0.00 60 1016.9
20260508145603 29 205 4.8 6.4 0.00 0.00 0.00 60 1016.9
20260508145524 29 210 4.8 6.4 0.00 0.00 0.00 60 1016.9
20260508145424 29 213 4.8 6.4 0.00 0.00 0.00 60 1016.7
20260508145306 29 217 3.2 6.4 0.00 0.00 0.00 60 1016.7
20260508145224 29 218 3.2 6.4 0.00 0.00 0.00 60 1016.9
20260508145103 29 218 3.2 6.4 0.00 0.00 0.00 60 1016.9
20260508145003 29 217 3.2 6.4 0.00 0.00 0.00 60 1016.9
20260508144904 29 215 3.2 6.4 0.00 0.00 0.00 60 1017.1
20260508144803 29 220 3.2 4.8 0.00 0.00 0.00 60 1016.7
20260508144703 29 224 3.2 4.8 0.00 0.00 0.00 60 1016.7
20260508144603 29 228 3.2 4.8 0.00 0.00 0.00 60 1017.0
20260508144505 29 218 3.2 4.8 0.00 0.00 0.00 60 1017.0
20260508144403 29 209 3.2 4.8 0.00 0.00 0.00 60 1017.0
20260508144303 29 205 3.2 4.8 0.00 0.00 0.00 60 1017.0
20260508144224 29 203 3.2 4.8 0.00 0.00 0.00 60 1017.0
20260508144103 29 198 3.2 4.8 0.00 0.00 0.00 60 1017.0
20260508144003 29 196 3.2 4.8 0.00 0.00 0.00 60 1017.0
20260508143903 29 193 3.2 4.8 0.00 0.00 0.00 60 1016.7
20260508143803 29 188 3.2 4.8 0.00 0.00 0.00 60 1016.7
20260508143703 29 185 3.2 4.8 0.00 0.00 0.00 60 1016.7
20260508143603 29 183 3.2 6.4 0.00 0.00 0.00 60 1017.0
20260508143503 29 185 3.2 6.4 0.00 0.00 0.00 60 1017.0
20260508143404 29 194 3.2 6.4 0.00 0.00 0.00 60 1016.9
20260508143303 29 193 3.2 6.4 0.00 0.00 0.00 60 1016.9
20260508143203 29 193 3.2 6.4 0.00 0.00 0.00 60 1016.9
20260508143103 29 194 3.2 6.4 0.00 0.00 0.00 60 1017.0
20260508143004 29 200 3.2 6.4 0.00 0.00 0.00 60 1016.7
20260508142903 29 199 3.2 6.4 0.00 0.00 0.00 60 1016.7
20260508142824 29 199 3.2 6.4 0.00 0.00 0.00 60 1016.7
20260508142703 29 206 4.8 9.7 0.00 0.00 0.00 60 1016.9
20260508142603 29 212 4.8 9.7 0.00 0.00 0.00 60 1016.9
20260508142503 29 213 4.8 9.7 0.00 0.00 0.00 60 1016.6
20260508142403 29 208 4.8 9.7 0.00 0.00 0.00 60 1016.7
20260508142324 29 205 4.8 9.7 0.00 0.00 0.00 60 1016.7
20260508142226 29 205 4.8 9.7 0.00 0.00 0.00 60 1016.6
20260508142103 29 202 4.8 9.7 0.00 0.00 0.00 60 1016.9
20260508142024 29 201 4.8 9.7 0.00 0.00 0.00 60 1016.6
20260508141904 29 203 4.8 9.7 0.00 0.00 0.00 60 1016.6
20260508141803 29 213 4.8 9.7 0.00 0.00 0.00 60 1016.6
20260508141703 29 215 3.2 6.4 0.00 0.00 0.00 60 1016.6
20260508141603 29 210 3.2 6.4 0.00 0.00 0.00 60 1016.6
20260508141503 29 208 3.2 6.4 0.00 0.00 0.00 60 1017.0
20260508141403 29 225 3.2 4.8 0.00 0.00 0.00 60 1016.6
20260508141303 29 245 3.2 4.8 0.00 0.00 0.00 60 1016.6
20260508141203 29 269 1.6 4.8 0.00 0.00 0.00 60 1016.7
20260508141103 29 285 1.6 4.8 0.00 0.00 0.00 60 1016.7
20260508141003 29 289 1.6 4.8 0.00 0.00 0.00 60 1016.7
20260508140903 29 265 1.6 4.8 0.00 0.00 0.00 60 1016.7
20260508140803 29 192 1.6 4.8 0.00 0.00 0.00 60 1016.5
20260508140703 29 174 1.6 4.8 0.00 0.00 0.00 60 1016.6
20260508140605 29 182 3.2 6.4 0.00 0.00 0.00 60 1016.6
20260508140524 29 183 3.2 6.4 0.00 0.00 0.00 60 1016.6
20260508140424 29 179 3.2 6.4 0.00 0.00 0.00 60 1016.6
20260508140324 29 174 3.2 6.4 0.00 0.00 0.00 60 1016.6
20260508140224 29 174 3.2 6.4 0.00 0.00 0.00 60 1016.5
20260508140124 29 171 4.8 6.4 0.00 0.00 0.00 60 1016.6
20260508140004 29 176 4.8 6.4 0.00 0.00 0.00 60 1016.5
20260508135903 29 182 4.8 6.4 0.00 0.00 0.00 60 1016.5
20260508135804 29 180 4.8 6.4 0.00 0.00 0.00 60 1016.5
20260508135703 29 177 3.2 6.4 0.00 0.00 0.00 60 1016.5
20260508135624 29 174 3.2 6.4 0.00 0.00 0.00 60 1016.5
20260508135503 29 150 3.2 4.8 0.00 0.00 0.00 60 1016.4
20260508135424 29 141 3.2 4.8 0.00 0.00 0.00 60 1016.3
20260508135306 29 129 3.2 6.4 0.00 0.00 0.00 60 1016.4
20260508135203 29 131 4.8 9.7 0.00 0.00 0.00 60 1016.5
20260508135124 29 136 4.8 9.7 0.00 0.00 0.00 60 1016.4
20260508135005 29 139 4.8 9.7 0.00 0.00 0.00 60 1016.2
20260508134925 29 141 4.8 9.7 0.00 0.00 0.00 60 1016.2
20260508134803 29 148 4.8 9.7 0.00 0.00 0.00 60 1016.4
20260508134703 29 154 4.8 9.7 0.00 0.00 0.00 60 1016.3
20260508134603 29 159 4.8 9.7 0.00 0.00 0.00 60 1016.4
20260508134504 29 161 4.8 9.7 0.00 0.00 0.00 60 1016.4
20260508134403 29 168 6.4 9.7 0.00 0.00 0.00 60 1016.1
20260508134303 29 177 6.4 9.7 0.00 0.00 0.00 60 1016.3
20260508134203 29 184 6.4 9.7 0.00 0.00 0.00 60 1016.0
20260508134103 29 189 4.8 9.7 0.00 0.00 0.00 60 1016.0
20260508134003 29 195 6.4 9.7 0.00 0.00 0.00 60 1016.2
20260508133903 29 199 6.4 9.7 0.00 0.00 0.00 60 1016.0
20260508133803 29 202 6.4 9.7 0.00 0.00 0.00 60 1015.9
20260508133703 29 203 6.4 9.7 0.00 0.00 0.00 60 1015.9
20260508133604 29 209 6.4 9.7 0.00 0.00 0.00 60 1016.0
20260508133524 29 214 6.4 9.7 0.00 0.00 0.00 60 1016.1
20260508133404 29 224 6.4 9.7 0.00 0.00 0.00 60 1016.0
20260508133304 29 231 6.4 9.7 0.00 0.00 0.00 60 1016.0
20260508133224 29 232 4.8 9.7 0.00 0.00 0.00 60 1016.0
20260508133103 29 238 4.8 9.7 0.00 0.00 0.00 60 1015.9
20260508133004 29 246 4.8 6.4 0.00 0.00 0.00 60 1015.9
20260508132903 29 245 4.8 6.4 0.00 0.00 0.00 60 1016.0
20260508132803 29 248 4.8 6.4 0.00 0.00 0.00 60 1016.1
20260508132703 29 248 4.8 6.4 0.00 0.00 0.00 60 1015.9
20260508132604 29 242 4.8 6.4 0.00 0.00 0.00 60 1015.9
20260508132503 29 234 4.8 6.4 0.00 0.00 0.00 60 1016.1
20260508132403 29 228 4.8 6.4 0.00 0.00 0.00 60 1015.9
20260508132324 29 225 4.8 6.4 0.00 0.00 0.00 60 1015.9
20260508132203 29 229 4.8 9.7 0.00 0.00 0.00 60 1016.0
20260508132103 29 235 6.4 9.7 0.00 0.00 0.00 60 1015.9
20260508132003 29 237 6.4 9.7 0.00 0.00 0.00 60 1015.8
20260508131903 29 244 6.4 9.7 0.00 0.00 0.00 60 1015.9
20260508131803 29 248 6.4 9.7 0.00 0.00 0.00 60 1016.0
20260508131703 29 252 6.4 9.7 0.00 0.00 0.00 60 1015.9
20260508131603 29 256 6.4 9.7 0.00 0.00 0.00 60 1015.9
20260508131503 29 267 6.4 9.7 0.00 0.00 0.00 60 1015.9
20260508131426 29 273 6.4 9.7 0.00 0.00 0.00 60 1015.9
20260508131303 29 276 6.4 9.7 0.00 0.00 0.00 60 1015.6
20260508131203 29 276 6.4 9.7 0.00 0.00 0.00 60 1015.6
20260508131103 29 275 6.4 9.7 0.00 0.00 0.00 60 1015.8
20260508131004 29 273 6.4 9.7 0.00 0.00 0.00 60 1015.6
20260508130903 29 272 6.4 9.7 0.00 0.00 0.00 60 1015.8
20260508130803 29 272 4.8 6.4 0.00 0.00 0.00 60 1015.6
20260508130703 29 272 6.4 6.4 0.00 0.00 0.00 60 1015.8
20260508130603 29 270 6.4 6.4 0.00 0.00 0.00 60 1015.6
20260508130503 29 267 4.8 6.4 0.00 0.00 0.00 60 1015.6
20260508130403 29 264 4.8 6.4 0.00 0.00 0.00 60 1015.6
20260508130303 29 265 4.8 6.4 0.00 0.00 0.00 60 1015.8
20260508130203 29 272 4.8 6.4 0.00 0.00 0.00 60 1015.8
20260508130103 29 275 4.8 6.4 0.00 0.00 0.00 60 1015.8
20260508130003 29 281 4.8 6.4 0.00 0.00 0.00 60 1015.5
20260508125903 29 284 4.8 6.4 0.00 0.00 0.00 60 1015.5
20260508125803 29 290 4.8 6.4 0.00 0.00 0.00 60 1015.5
20260508125703 29 296 4.8 6.4 0.00 0.00 0.00 60 1015.5
20260508125604 29 301 4.8 6.4 0.00 0.00 0.00 60 1015.5
20260508125525 29 308 4.8 6.4 0.00 0.00 0.00 60 1015.5
20260508125403 29 317 4.8 6.4 0.00 0.00 0.00 60 1015.5
20260508125324 29 318 4.8 9.7 0.00 0.00 0.00 60 1015.5
20260508125203 29 322 4.8 9.7 0.00 0.00 0.00 60 1015.5
20260508125103 29 324 4.8 9.7 0.00 0.00 0.00 60 1015.5
20260508125003 29 327 6.4 9.7 0.00 0.00 0.00 60 1015.4
20260508124903 29 338 4.8 9.7 0.00 0.00 0.00 60 1015.4
20260508124803 29 338 6.4 9.7 0.00 0.00 0.00 60 1015.4
20260508124724 29 338 6.4 9.7 0.00 0.00 0.00 60 1015.4
20260508124624 29 352 6.4 11.3 0.00 0.00 0.00 60 1015.4
20260508124503 29 355 6.4 11.3 0.00 0.00 0.00 60 1015.4
20260508124403 29 357 6.4 11.3 0.00 0.00 0.00 60 1015.4
20260508124303 29 358 4.8 11.3 0.00 0.00 0.00 60 1015.4
20260508124203 29 4 4.8 11.3 0.00 0.00 0.00 60 1015.5
20260508124103 29 11 4.8 11.3 0.00 0.00 0.00 60 1015.4
20260508124003 29 13 3.2 11.3 0.00 0.00 0.00 60 1015.4
20260508123903 29 13 3.2 11.3 0.00 0.00 0.00 60 1015.5
20260508123826 29 17 3.2 11.3 0.00 0.00 0.00 60 1015.3
20260508123703 29 26 3.2 11.3 0.00 0.00 0.00 60 1015.3
20260508123603 29 19 1.6 4.8 0.00 0.00 0.00 60 1015.4
20260508123503 29 21 1.6 3.2 0.00 0.00 0.00 60 1015.4
20260508123403 29 55 1.6 3.2 0.00 0.00 0.00 60 1015.3
20260508123303 29 80 0.0 1.6 0.00 0.00 0.00 60 1015.3
20260508123203 29 80 0.0 1.6 0.00 0.00 0.00 60 1015.4
20260508123103 29 80 0.0 1.6 0.00 0.00 0.00 60 1015.3
20260508123003 29 87 0.0 1.6 0.00 0.00 0.00 60 1015.2
20260508122903 29 105 1.6 3.2 0.00 0.00 0.00 60 1015.3
20260508122824 29 112 1.6 3.2 0.00 0.00 0.00 60 1015.2
20260508122703 29 134 1.6 3.2 0.00 0.00 0.00 60 1015.2
20260508122603 29 136 1.6 3.2 0.00 0.00 0.00 60 1015.3
20260508122503 29 137 1.6 3.2 0.00 0.00 0.00 60 1015.2
20260508122403 29 140 1.6 3.2 0.00 0.00 0.00 60 1015.2
20260508122306 29 147 3.2 3.2 0.00 0.00 0.00 60 1015.2
20260508122203 29 149 1.6 3.2 0.00 0.00 0.00 60 1015.3
20260508122103 29 152 1.6 3.2 0.00 0.00 0.00 60 1015.1
20260508122003 29 153 1.6 3.2 0.00 0.00 0.00 60 1015.1
20260508121905 29 152 3.2 4.8 0.00 0.00 0.00 60 1015.3
20260508121803 29 140 1.6 4.8 0.00 0.00 0.00 60 1015.2
20260508121724 29 137 1.6 4.8 0.00 0.00 0.00 60 1015.1
20260508121603 29 135 1.6 4.8 0.00 0.00 0.00 60 1015.0
20260508121503 29 131 1.6 4.8 0.00 0.00 0.00 60 1015.0
20260508121426 29 130 1.6 4.8 0.00 0.00 0.00 60 1015.0
20260508121303 29 100 1.6 4.8 0.00 0.00 0.00 60 1015.0
20260508121203 29 105 1.6 4.8 0.00 0.00 0.00 60 1015.1
20260508121103 29 102 1.6 4.8 0.00 0.00 0.00 60 1015.0
20260508121003 29 92 1.6 4.8 0.00 0.00 0.00 60 1015.0
20260508120904 29 35 0.0 3.2 0.00 0.00 0.00 60 1015.0
20260508120805 29 313 0.0 1.6 0.00 0.00 0.00 60 1015.0
20260508120704 29 296 0.0 1.6 0.00 0.00 0.00 60 1014.9
20260508120624 29 290 0.0 3.2 0.00 0.00 0.00 60 1015.0
20260508120504 29 276 1.6 4.8 0.00 0.00 0.00 60 1015.0
20260508120405 29 275 1.6 6.4 0.00 0.00 0.00 60 1015.0
20260508120305 29 274 1.6 6.4 0.00 0.00 0.00 60 1015.0
20260508120203 29 271 3.2 6.4 0.00 0.00 0.00 60 1014.8
20260508120103 29 270 3.2 6.4 0.00 0.00 0.00 60 1014.8
20260508120003 29 270 3.2 6.4 0.00 0.00 0.00 60 1014.9
20260508115903 29 267 4.8 11.3 0.00 0.00 0.00 60 1014.8
20260508115803 29 265 4.8 11.3 0.00 0.00 0.00 60 1014.8
20260508115703 29 262 6.4 11.3 0.00 0.00 0.00 60 1014.8
20260508115624 29 262 6.4 11.3 0.00 0.00 0.00 60 1014.8
20260508115503 29 260 6.4 11.3 0.00 0.00 0.00 60 1014.9
20260508115403 29 260 6.4 11.3 0.00 0.00 0.00 60 1014.7
20260508115306 29 262 6.4 11.3 0.00 0.00 0.00 60 1014.7
20260508115204 29 266 6.4 11.3 0.00 0.00 0.00 60 1014.7
20260508115103 29 266 6.4 11.3 0.00 0.00 0.00 60 1014.8
20260508115003 29 265 8.0 11.3 0.00 0.00 0.00 60 1014.6
20260508114903 29 266 6.4 11.3 0.00 0.00 0.00 60 1014.7
20260508114803 29 268 6.4 12.9 0.00 0.00 0.00 60 1014.7
20260508114703 29 269 6.4 12.9 0.00 0.00 0.00 60 1014.7
20260508114624 29 268 6.4 12.9 0.00 0.00 0.00 60 1014.7
20260508114503 29 270 6.4 12.9 0.00 0.00 0.00 60 1014.6
20260508114405 29 269 8.0 12.9 0.00 0.00 0.00 60 1014.6
20260508114324 29 270 6.4 12.9 0.00 0.00 0.00 60 1014.7
20260508114203 29 264 6.4 12.9 0.00 0.00 0.00 60 1014.8
20260508114103 29 262 6.4 12.9 0.00 0.00 0.00 60 1014.8
20260508114003 29 256 6.4 12.9 0.00 0.00 0.00 60 1014.6
20260508113903 29 253 6.4 12.9 0.00 0.00 0.00 60 1014.7
20260508113824 29 254 6.4 12.9 0.00 0.00 0.00 60 1014.6
20260508113703 29 252 6.4 12.9 0.00 0.00 0.00 60 1014.5
20260508113603 29 250 6.4 12.9 0.00 0.00 0.00 60 1014.6
20260508113503 29 249 6.4 12.9 0.00 0.00 0.00 60 1014.4
20260508113424 29 249 6.4 12.9 0.00 0.00 0.00 60 1014.6
20260508113303 29 248 6.4 12.9 0.00 0.00 0.00 60 1014.5
20260508113224 29 249 6.4 12.9 0.00 0.00 0.00 60 1014.5
20260508113124 29 251 6.4 12.9 0.00 0.00 0.00 60 1014.6
20260508113005 29 257 6.4 12.9 0.00 0.00 0.00 60 1014.5
20260508112903 29 260 6.4 12.9 0.00 0.00 0.00 60 1014.5
20260508112804 29 261 6.4 12.9 0.00 0.00 0.00 60 1014.7
20260508112745 29 262 6.4 12.9 0.00 0.00 0.00 60 1014.6
20260508112603 29 267 6.4 12.9 0.00 0.00 0.00 60 1014.6
20260508112503 29 267 6.4 12.9 0.00 0.00 0.00 60 1014.6
20260508112403 29 264 6.4 12.9 0.00 0.00 0.00 60 1014.6
20260508112306 29 260 8.0 17.7 0.00 0.00 0.00 60 1014.6
20260508112203 29 259 8.0 17.7 0.00 0.00 0.00 60 1014.7
20260508112104 29 257 8.0 17.7 0.00 0.00 0.00 60 1014.7
20260508112003 29 254 9.7 17.7 0.00 0.00 0.00 60 1014.5
20260508111903 29 252 9.7 17.7 0.00 0.00 0.00 60 1014.6
20260508111804 29 249 9.7 17.7 0.00 0.00 0.00 60 1014.6
20260508111703 29 247 11.3 17.7 0.00 0.00 0.00 60 1014.6
20260508111624 29 248 9.7 17.7 0.00 0.00 0.00 60 1014.6
20260508111503 29 245 11.3 17.7 0.00 0.00 0.00 60 1014.6
20260508111403 29 246 11.3 17.7 0.00 0.00 0.00 60 1014.6
20260508111303 29 248 11.3 16.1 0.00 0.00 0.00 60 1014.6
20260508111203 29 249 11.3 16.1 0.00 0.00 0.00 60 1014.7
20260508111106 29 247 11.3 16.1 0.00 0.00 0.00 60 1014.5
20260508111003 29 249 11.3 16.1 0.00 0.00 0.00 60 1014.7
20260508110904 29 248 11.3 16.1 0.00 0.00 0.00 60 1014.7
20260508110803 29 247 11.3 17.7 0.00 0.00 0.00 60 1014.5
20260508110703 29 247 11.3 17.7 0.00 0.00 0.00 60 1014.6
20260508110603 29 247 12.9 17.7 0.00 0.00 0.00 60 1014.4
20260508110503 29 251 12.9 17.7 0.00 0.00 0.00 60 1014.6
20260508110404 29 250 12.9 20.9 0.00 0.00 0.00 60 1014.5
20260508110303 29 250 12.9 20.9 0.00 0.00 0.00 60 1014.6
20260508110224 29 249 12.9 20.9 0.00 0.00 0.00 60 1014.6
20260508110104 29 250 12.9 20.9 0.00 0.00 0.00 60 1014.6
20260508110003 29 249 14.5 20.9 0.00 0.00 0.00 60 1014.5
20260508105903 29 251 14.5 20.9 0.00 0.00 0.00 60 1014.6
20260508105805 29 252 14.5 20.9 0.00 0.00 0.00 60 1014.6
20260508105703 29 254 14.5 20.9 0.00 0.00 0.00 60 1014.5
20260508105603 29 255 14.5 20.9 0.00 0.00 0.00 60 1014.5
20260508105505 29 254 14.5 20.9 0.00 0.00 0.00 60 1014.5
20260508105403 29 255 14.5 20.9 0.00 0.00 0.00 60 1014.5
20260508105306 29 257 14.5 20.9 0.00 0.00 0.00 60 1014.5
20260508105224 29 260 14.5 20.9 0.00 0.00 0.00 60 1014.4
20260508105103 29 259 14.5 20.9 0.00 0.00 0.00 60 1014.5
20260508105003 29 261 14.5 20.9 0.00 0.00 0.00 60 1014.5
20260508104903 29 261 14.5 20.9 0.00 0.00 0.00 60 1014.4
20260508104803 29 263 14.5 20.9 0.00 0.00 0.00 60 1014.4
20260508104703 29 266 14.5 20.9 0.00 0.00 0.00 60 1014.2
20260508104603 29 267 14.5 20.9 0.00 0.00 0.00 60 1014.6
20260508104503 29 266 14.5 20.9 0.00 0.00 0.00 60 1014.4
20260508104403 29 265 14.5 17.7 0.00 0.00 0.00 60 1014.5
20260508104303 29 264 14.5 17.7 0.00 0.00 0.00 60 1014.4
20260508104203 29 264 12.9 17.7 0.00 0.00 0.00 60 1014.5
20260508104103 29 267 12.9 17.7 0.00 0.00 0.00 60 1014.2
20260508104003 29 266 12.9 17.7 0.00 0.00 0.00 60 1014.5
20260508103903 29 268 12.9 17.7 0.00 0.00 0.00 60 1014.5
20260508103804 29 271 12.9 17.7 0.00 0.00 0.00 60 1014.1
20260508103703 29 270 12.9 17.7 0.00 0.00 0.00 60 1014.4
20260508103603 29 273 11.3 17.7 0.00 0.00 0.00 60 1014.4
20260508103503 29 277 11.3 16.1 0.00 0.00 0.00 60 1014.5
20260508103403 29 277 11.3 17.7 0.00 0.00 0.00 60 1014.4
20260508103303 29 282 11.3 17.7 0.00 0.00 0.00 60 1014.1
20260508103203 29 278 11.3 17.7 0.00 0.00 0.00 60 1014.4
20260508103103 29 276 11.3 17.7 0.00 0.00 0.00 60 1014.4
20260508103003 29 275 12.9 17.7 0.00 0.00 0.00 60 1014.4
20260508102903 29 277 12.9 17.7 0.00 0.00 0.00 60 1014.2
20260508102803 29 275 12.9 17.7 0.00 0.00 0.00 60 1014.2
20260508102703 29 272 12.9 17.7 0.00 0.00 0.00 60 1014.2
20260508102603 29 269 12.9 17.7 0.00 0.00 0.00 60 1014.2
20260508102524 29 268 12.9 17.7 0.00 0.00 0.00 60 1014.4
20260508102403 29 271 12.9 17.7 0.00 0.00 0.00 60 1014.4
20260508102324 29 270 12.9 17.7 0.00 0.00 0.00 60 1014.2
20260508102204 29 273 12.9 17.7 0.00 0.00 0.00 60 1014.2
20260508102103 29 274 11.3 17.7 0.00 0.00 0.00 60 1014.2
20260508102003 29 274 11.3 17.7 0.00 0.00 0.00 60 1014.1
20260508101903 29 278 11.3 17.7 0.00 0.00 0.00 60 1014.2
20260508101803 29 275 9.7 16.1 0.00 0.00 0.00 60 1014.1
20260508101703 29 278 9.7 16.1 0.00 0.00 0.00 60 1014.2
20260508101603 29 274 8.0 16.1 0.00 0.00 0.00 60 1014.2
20260508101503 29 268 9.7 16.1 0.00 0.00 0.00 60 1014.2
20260508101403 29 268 8.0 16.1 0.00 0.00 0.00 60 1014.4
20260508101324 29 266 9.7 16.1 0.00 0.00 0.00 60 1014.4
20260508101203 29 260 8.0 14.5 0.00 0.00 0.00 60 1014.1
20260508101103 29 263 9.7 14.5 0.00 0.00 0.00 60 1014.6
20260508101003 29 261 9.7 14.5 0.00 0.00 0.00 60 1014.1
20260508100903 29 260 9.7 14.5 0.00 0.00 0.00 60 1014.4
20260508100824 29 260 9.7 14.5 0.00 0.00 0.00 60 1014.4
20260508100703 29 264 11.3 14.5 0.00 0.00 0.00 60 1014.5
20260508100603 29 268 11.3 14.5 0.00 0.00 0.00 60 1014.5
20260508100503 29 270 9.7 14.5 0.00 0.00 0.00 60 1014.4
20260508100403 29 271 11.3 14.5 0.00 0.00 0.00 60 1014.4
20260508100303 29 274 9.7 14.5 0.00 0.00 0.00 60 1014.4
20260508100203 29 281 9.7 14.5 0.00 0.00 0.00 60 1014.2
20260508100103 29 279 9.7 14.5 0.00 0.00 0.00 60 1014.4
20260508100004 29 281 9.7 14.5 0.00 0.00 0.00 60 1014.4
20260508095903 29 282 9.7 14.5 0.00 0.00 0.00 60 1014.4
20260508095803 29 277 9.7 14.5 0.00 0.00 0.00 60 1014.2
20260508095703 29 275 9.7 14.5 0.00 0.00 0.00 60 1014.4
20260508095603 29 276 9.7 14.5 0.00 0.00 0.00 60 1014.4
20260508095503 29 280 8.0 14.5 0.00 0.00 0.00 60 1014.2
20260508095403 29 281 8.0 14.5 0.00 0.00 0.00 60 1014.4
20260508095306 29 274 8.0 14.5 0.00 0.00 0.00 60 1014.5
20260508095203 29 269 8.0 14.5 0.00 0.00 0.00 60 1014.5
20260508095124 29 269 8.0 14.5 0.00 0.00 0.00 60 1014.5
20260508095005 29 273 8.0 14.5 0.00 0.00 0.00 60 1014.6
20260508094903 29 278 8.0 14.5 0.00 0.00 0.00 60 1014.6
20260508094804 29 281 6.4 14.5 0.00 0.00 0.00 60 1014.4
20260508094704 29 292 6.4 12.9 0.00 0.00 0.00 60 1014.5
20260508094603 29 291 6.4 12.9 0.00 0.00 0.00 60 1014.4
20260508094504 29 294 6.4 12.9 0.00 0.00 0.00 60 1014.5
20260508094403 29 300 6.4 12.9 0.00 0.00 0.00 60 1014.5
20260508094304 29 317 4.8 12.9 0.00 0.00 0.00 60 1014.2
20260508094203 29 333 4.8 9.7 0.00 0.00 0.00 60 1014.4
20260508094104 29 338 4.8 9.7 0.00 0.00 0.00 60 1014.4
20260508094003 29 335 4.8 9.7 0.00 0.00 0.00 60 1014.4
20260508093904 29 339 4.8 11.3 0.00 0.00 0.00 60 1014.5
20260508093803 29 343 6.4 11.3 0.00 0.00 0.00 60 1014.5
20260508093703 29 349 6.4 11.3 0.00 0.00 0.00 60 1014.5
20260508093603 29 354 6.4 11.3 0.00 0.00 0.00 60 1014.6
20260508093524 29 360 8.0 12.9 0.00 0.00 0.00 60 1014.7
20260508093403 29 360 8.0 12.9 0.00 0.00 0.00 60 1014.5
20260508093305 29 7 8.0 12.9 0.00 0.00 0.00 60 1014.4
20260508093203 29 13 8.0 12.9 0.00 0.00 0.00 60 1014.4
20260508093103 29 14 8.0 12.9 0.00 0.00 0.00 60 1014.4
20260508093003 29 15 9.7 12.9 0.00 0.00 0.00 60 1014.5
20260508092904 29 16 8.0 12.9 0.00 0.00 0.00 60 1014.5
20260508092804 29 15 8.0 12.9 0.00 0.00 0.00 60 1014.6
20260508092703 29 13 8.0 12.9 0.00 0.00 0.00 60 1014.6
20260508092604 29 15 8.0 14.5 0.00 0.00 0.00 60 1014.8
20260508092503 29 11 8.0 14.5 0.00 0.00 0.00 60 1014.6
20260508092404 29 14 8.0 14.5 0.00 0.00 0.00 60 1014.6
20260508092312 29 12 8.0 14.5 0.00 0.00 0.00 60 1014.7
20260508092203 29 4 8.0 14.5 0.00 0.00 0.00 60 1014.6
20260508092103 29 3 8.0 14.5 0.00 0.00 0.00 60 1014.6
20260508092003 29 4 6.4 14.5 0.00 0.00 0.00 60 1014.6
20260508091904 29 359 6.4 14.5 0.00 0.00 0.00 60 1014.7
20260508091804 29 358 8.0 14.5 0.00 0.00 0.00 60 1014.5
20260508091705 29 358 8.0 14.5 0.00 0.00 0.00 60 1014.5
20260508091624 29 357 8.0 14.5 0.00 0.00 0.00 60 1014.6
20260508091504 29 360 8.0 14.5 0.00 0.00 0.00 60 1014.5
20260508091403 29 360 8.0 16.1 0.00 0.00 0.00 60 1014.5
20260508091303 29 356 8.0 16.1 0.00 0.00 0.00 60 1014.5
20260508091204 29 3 8.0 16.1 0.00 0.00 0.00 60 1014.6
20260508091124 29 9 8.0 16.1 0.00 0.00 0.00 60 1014.8
20260508091024 29 16 8.0 16.1 0.00 0.00 0.00 60 1014.7
20260508090903 29 22 8.0 16.1 0.00 0.00 0.00 60 1014.7
20260508090803 29 25 8.0 16.1 0.00 0.00 0.00 60 1014.7
20260508090703 29 29 8.0 16.1 0.00 0.00 0.00 60 1014.8
20260508090603 29 30 8.0 16.1 0.00 0.00 0.00 60 1014.9
20260508090504 29 29 8.0 16.1 0.00 0.00 0.00 60 1014.9
20260508090403 29 35 6.4 12.9 0.00 0.00 0.00 60 1014.7
20260508090303 29 39 6.4 12.9 0.00 0.00 0.00 60 1014.9
20260508090204 29 37 6.4 12.9 0.00 0.00 0.00 60 1014.8
20260508090104 29 33 6.4 12.9 0.00 0.00 0.00 60 1014.8
20260508090004 29 27 6.4 11.3 0.00 0.00 0.00 60 1015.0
20260508085903 29 26 6.4 11.3 0.00 0.00 0.00 60 1014.9
20260508085826 29 27 8.0 11.3 0.00 0.00 0.00 60 1014.9
20260508085703 29 24 6.4 11.3 0.00 0.00 0.00 60 1014.9
20260508085604 29 26 6.4 11.3 0.00 0.00 0.00 60 1014.9
20260508085524 29 28 6.4 11.3 0.00 0.00 0.00 60 1014.9
20260508085403 29 26 6.4 11.3 0.00 0.00 0.00 60 1015.0
20260508085306 29 27 6.4 11.3 0.00 0.00 0.00 60 1015.0
20260508085203 29 31 6.4 11.3 0.00 0.00 0.00 60 1015.0
20260508085103 29 39 6.4 11.3 0.00 0.00 0.00 60 1015.0
20260508085003 29 41 4.8 11.3 0.00 0.00 0.00 60 1015.1
20260508084925 29 42 4.8 11.3 0.00 0.00 0.00 60 1015.1
20260508084803 29 39 4.8 9.7 0.00 0.00 0.00 60 1015.1
20260508084704 29 39 3.2 9.7 0.00 0.00 0.00 60 1015.1
20260508084603 29 30 3.2 9.7 0.00 0.00 0.00 60 1015.1
20260508084524 29 26 3.2 9.7 0.00 0.00 0.00 60 1015.1
20260508084403 29 33 3.2 9.7 0.00 0.00 0.00 60 1015.1
20260508084303 29 36 4.8 9.7 0.00 0.00 0.00 60 1015.1
20260508084204 29 41 4.8 9.7 0.00 0.00 0.00 60 1015.3
20260508084104 29 37 4.8 9.7 0.00 0.00 0.00 60 1015.3
20260508084004 29 41 4.8 9.7 0.00 0.00 0.00 60 1015.2
20260508083904 29 46 4.8 9.7 0.00 0.00 0.00 60 1015.2
20260508083804 29 49 4.8 9.7 0.00 0.00 0.00 60 1015.2
20260508083703 29 49 4.8 9.7 0.00 0.00 0.00 60 1015.2
20260508083603 29 47 4.8 12.9 0.00 0.00 0.00 60 1015.3
20260508083503 29 47 6.4 12.9 0.00 0.00 0.00 60 1015.3
20260508083403 29 43 6.4 12.9 0.00 0.00 0.00 60 1015.3
20260508083304 29 39 6.4 12.9 0.00 0.00 0.00 60 1015.3
20260508083204 29 37 6.4 12.9 0.00 0.00 0.00 60 1015.2
20260508083103 29 39 6.4 12.9 0.00 0.00 0.00 60 1015.3
20260508083004 29 37 6.4 12.9 0.00 0.00 0.00 60 1015.3
20260508082924 29 36 6.4 12.9 0.00 0.00 0.00 60 1015.3
20260508082804 29 28 6.4 12.9 0.00 0.00 0.00 60 1015.4
20260508082703 29 27 6.4 12.9 0.00 0.00 0.00 60 1015.3
20260508082603 29 27 6.4 9.7 0.00 0.00 0.00 60 1015.4
20260508082505 29 28 6.4 9.7 0.00 0.00 0.00 60 1015.4
20260508082405 29 24 6.4 11.3 0.00 0.00 0.00 60 1015.2
20260508082306 29 20 6.4 11.3 0.00 0.00 0.00 60 1015.4
20260508082203 29 15 6.4 11.3 0.00 0.00 0.00 60 1015.3
20260508082125 29 13 6.4 11.3 0.00 0.00 0.00 60 1015.3
20260508082005 29 14 6.4 12.9 0.00 0.00 0.00 60 1015.2
20260508081904 29 21 6.4 14.5 0.00 0.00 0.00 60 1015.3
20260508081824 29 26 8.0 14.5 0.00 0.00 0.00 60 1015.3
20260508081704 29 32 8.0 14.5 0.00 0.00 0.00 60 1015.3
20260508081605 29 32 8.0 14.5 0.00 0.00 0.00 60 1015.5
20260508081504 29 33 8.0 14.5 0.00 0.00 0.00 60 1015.4
20260508081404 29 39 8.0 14.5 0.00 0.00 0.00 60 1015.4
20260508081326 29 40 9.7 14.5 0.00 0.00 0.00 60 1015.4
20260508081205 29 45 9.7 14.5 0.00 0.00 0.00 60 1015.4
20260508081103 29 51 9.7 14.5 0.00 0.00 0.00 60 1015.6
20260508081003 29 50 9.7 14.5 0.00 0.00 0.00 60 1015.4
20260508080903 29 50 9.7 14.5 0.00 0.00 0.00 60 1015.4
20260508080826 29 49 9.7 14.5 0.00 0.00 0.00 60 1015.4
20260508080603 29 49 8.0 14.5 0.00 0.00 0.00 60 1015.5
20260508080503 29 50 8.0 14.5 0.00 0.00 0.00 60 1015.5
20260508080403 29 49 6.4 14.5 0.00 0.00 0.00 60 1015.6
20260508080305 29 48 6.4 14.5 0.00 0.00 0.00 60 1015.5
20260508080204 29 50 4.8 12.9 0.00 0.00 0.00 60 1015.6
20260508080103 29 46 4.8 12.9 0.00 0.00 0.00 60 1015.6
20260508080004 29 44 3.2 11.3 0.00 0.00 0.00 60 1015.6
20260508075903 29 28 3.2 6.4 0.00 0.00 0.00 60 1015.6
20260508075803 29 20 1.6 6.4 0.00 0.00 0.00 60 1015.6
20260508075703 29 285 1.6 4.8 0.00 0.00 0.00 60 1015.6
20260508075603 29 258 1.6 4.8 0.00 0.00 0.00 60 1015.8
20260508075503 29 255 1.6 4.8 0.00 0.00 0.00 60 1015.9
20260508075404 29 251 3.2 4.8 0.00 0.00 0.00 60 1015.9
20260508075308 29 255 3.2 4.8 0.00 0.00 0.00 60 1015.9
20260508075203 29 257 3.2 4.8 0.00 0.00 0.00 60 1015.9
20260508075104 29 261 3.2 4.8 0.00 0.00 0.00 60 1015.6
20260508075003 29 269 3.2 4.8 0.00 0.00 0.00 60 1015.8
20260508074903 29 271 3.2 4.8 0.00 0.00 0.00 60 1015.8
20260508074803 29 274 3.2 4.8 0.00 0.00 0.00 60 1015.8
20260508074705 29 277 3.2 4.8 0.00 0.00 0.00 60 1016.0
20260508074604 29 281 3.2 4.8 0.00 0.00 0.00 60 1015.8
20260508074503 29 284 3.2 4.8 0.00 0.00 0.00 60 1015.8
20260508074403 29 289 3.2 4.8 0.00 0.00 0.00 60 1016.1
20260508074303 29 303 3.2 6.4 0.00 0.00 0.00 60 1015.9
20260508074203 29 320 3.2 6.4 0.00 0.00 0.00 60 1015.9
20260508074124 29 331 3.2 6.4 0.00 0.00 0.00 60 1015.9
20260508074003 29 57 3.2 6.4 0.00 0.00 0.00 60 1016.1
20260508073903 29 94 3.2 6.4 0.00 0.00 0.00 60 1015.9
20260508073824 29 118 3.2 6.4 0.00 0.00 0.00 60 1016.0
20260508073703 29 138 3.2 6.4 0.00 0.00 0.00 60 1016.0
20260508073624 29 146 3.2 6.4 0.00 0.00 0.00 60 1015.9
20260508073503 29 172 3.2 6.4 0.00 0.00 0.00 60 1016.1
20260508073403 29 183 4.8 6.4 0.00 0.00 0.00 60 1016.0
20260508073303 29 203 4.8 9.7 0.00 0.00 0.00 60 1016.0
20260508073204 29 208 4.8 9.7 0.00 0.00 0.00 60 1016.0
20260508073103 29 210 4.8 9.7 0.00 0.00 0.00 60 1016.2
20260508073004 29 210 4.8 9.7 0.00 0.00 0.00 60 1016.2
20260508072904 29 211 4.8 9.7 0.00 0.00 0.00 60 1016.2
20260508072803 29 220 4.8 9.7 0.00 0.00 0.00 60 1016.2
20260508072704 29 227 4.8 9.7 0.00 0.00 0.00 60 1016.2
20260508072603 29 234 3.2 9.7 0.00 0.00 0.00 60 1016.1
20260508072503 29 239 3.2 9.7 0.00 0.00 0.00 60 1016.1
20260508072403 29 244 3.2 9.7 0.00 0.00 0.00 60 1016.1
20260508072324 29 256 3.2 9.7 0.00 0.00 0.00 60 1016.1
20260508072203 29 312 3.2 12.9 0.00 0.00 0.00 60 1016.2
20260508072104 29 325 3.2 12.9 0.00 0.00 0.00 60 1016.2
20260508072004 29 324 4.8 14.5 0.00 0.00 0.00 60 1016.2
20260508071903 29 322 6.4 14.5 0.00 0.00 0.00 60 1016.3
20260508071824 29 321 6.4 14.5 0.00 0.00 0.00 60 1016.2
20260508071704 29 318 6.4 14.5 0.00 0.00 0.00 60 1016.2
20260508071603 29 326 8.0 14.5 0.00 0.00 0.00 60 1016.3
20260508071503 29 326 8.0 14.5 0.00 0.00 0.00 60 1016.4
20260508071403 29 328 8.0 14.5 0.00 0.00 0.00 60 1016.2
20260508071303 29 326 8.0 14.5 0.00 0.00 0.00 60 1016.2
20260508071203 29 323 6.4 14.5 0.00 0.00 0.00 60 1016.5
20260508071103 29 324 6.4 14.5 0.00 0.00 0.00 60 1016.4
20260508071005 29 329 6.4 12.9 0.00 0.00 0.00 60 1016.5
20260508070903 29 332 4.8 11.3 0.00 0.00 0.00 60 1016.5
20260508070803 29 340 4.8 11.3 0.00 0.00 0.00 60 1016.4
20260508070703 29 347 4.8 11.3 0.00 0.00 0.00 60 1016.3
20260508070624 29 338 3.2 11.3 0.00 0.00 0.00 60 1016.3
20260508070526 29 333 3.2 6.4 0.00 0.00 0.00 60 1016.3
20260508070405 29 303 4.8 6.4 0.00 0.00 0.00 60 1016.5
20260508070303 29 299 4.8 9.7 0.00 0.00 0.00 60 1016.2
20260508070204 29 295 4.8 9.7 0.00 0.00 0.00 60 1016.5
20260508070104 29 296 4.8 11.3 0.00 0.00 0.00 60 1016.5
20260508070004 29 295 6.4 11.3 0.00 0.00 0.00 60 1016.4
20260508065903 29 296 6.4 12.9 0.00 0.00 0.00 60 1016.5
20260508065803 29 296 6.4 12.9 0.00 0.00 0.00 60 1016.4
20260508065704 29 298 6.4 12.9 0.00 0.00 0.00 60 1016.4
20260508065624 29 303 6.4 12.9 0.00 0.00 0.00 60 1016.5
20260508065524 29 309 6.4 12.9 0.00 0.00 0.00 60 1016.6
20260508065405 29 320 6.4 12.9 0.00 0.00 0.00 60 1016.5
20260508065306 29 323 6.4 12.9 0.00 0.00 0.00 60 1016.6
20260508065203 29 328 6.4 12.9 0.00 0.00 0.00 60 1016.5
20260508065103 29 329 6.4 12.9 0.00 0.00 0.00 60 1016.7
20260508065003 29 327 6.4 12.9 0.00 0.00 0.00 60 1016.5
20260508064924 29 327 6.4 11.3 0.00 0.00 0.00 60 1016.6
20260508064803 29 320 6.4 11.3 0.00 0.03 0.00 60 1016.7
20260508064705 29 319 6.4 11.3 0.00 0.03 0.00 60 1016.5
20260508064603 29 324 6.4 11.3 0.00 0.03 0.00 60 1016.7
20260508064503 29 331 8.0 11.3 0.00 0.03 0.00 60 1016.7
20260508064403 29 336 8.0 11.3 0.00 0.03 0.00 60 1016.7
20260508064303 29 339 6.4 11.3 0.00 0.03 0.00 60 1016.6
20260508064203 29 346 6.4 11.3 0.00 0.03 0.00 60 1016.7
20260508064103 29 1 6.4 11.3 0.00 0.05 0.00 60 1016.7
20260508064003 29 34 6.4 11.3 0.00 0.08 0.00 60 1016.7
20260508063903 29 49 6.4 11.3 0.00 0.08 0.00 60 1016.6
20260508063824 29 56 6.4 11.3 0.00 0.08 0.00 60 1016.6
20260508063703 29 74 4.8 11.3 0.00 0.10 0.00 60 1016.6
20260508063605 29 86 4.8 11.3 0.00 0.10 0.00 60 1017.1
20260508063503 29 94 4.8 6.4 0.00 0.10 0.00 60 1017.0
20260508063403 29 96 4.8 6.4 0.00 0.10 0.00 60 1016.9
20260508063303 29 97 4.8 6.4 0.00 0.10 0.00 60 1017.0
20260508063204 29 89 4.8 9.7 0.00 0.10 0.00 60 1016.9
20260508063103 29 83 4.8 12.9 0.00 0.10 0.00 60 1017.1
20260508063003 29 84 6.4 12.9 0.00 0.10 0.00 60 1017.0
20260508062903 29 86 4.8 12.9 0.00 0.10 0.00 60 1017.0
20260508062803 29 94 6.4 12.9 0.00 0.10 0.00 60 1017.1
20260508062724 29 99 6.4 12.9 0.00 0.10 0.00 60 1017.0
20260508062603 29 93 6.4 12.9 0.00 0.10 0.00 60 1017.0
20260508062524 29 93 6.4 12.9 0.00 0.10 0.00 60 1017.0
20260508062403 29 85 4.8 12.9 0.00 0.10 0.00 60 1017.2
20260508062306 29 78 4.8 12.9 0.00 0.10 0.00 60 1017.1
20260508062203 29 88 4.8 12.9 0.00 0.10 0.00 60 1017.1
20260508062103 29 89 4.8 6.4 0.00 0.10 0.00 60 1017.1
20260508062005 29 64 3.2 6.4 0.00 0.10 0.00 60 1017.1
20260508061924 29 50 3.2 6.4 0.00 0.10 0.00 60 1017.3
20260508061803 29 27 3.2 6.4 0.00 0.10 0.00 60 1017.3
20260508061704 29 27 3.2 6.4 0.00 0.10 0.00 60 1017.3
20260508061603 29 21 3.2 9.7 0.00 0.10 0.00 60 1017.2
20260508061503 29 22 4.8 9.7 0.00 0.10 0.00 60 1017.4
20260508061403 29 21 4.8 9.7 0.00 0.10 0.00 60 1017.5
20260508061303 29 19 4.8 9.7 0.00 0.10 0.00 60 1017.5
20260508061203 29 12 4.8 9.7 0.00 0.10 0.00 60 1017.5
20260508061124 29 10 4.8 9.7 0.00 0.10 0.00 60 1017.5
20260508061003 29 11 4.8 9.7 0.00 0.10 0.00 60 1017.3
20260508060924 29 11 4.8 9.7 0.00 0.10 0.00 60 1017.3
20260508060803 29 12 4.8 9.7 0.00 0.10 0.00 60 1017.4
20260508060703 29 20 6.4 9.7 0.00 0.10 0.00 60 1017.5
20260508060603 29 21 4.8 9.7 0.00 0.10 0.00 60 1017.3
20260508060503 29 20 4.8 9.7 0.00 0.10 0.00 60 1017.3
20260508060424 29 20 4.8 9.7 0.00 0.10 0.00 60 1017.5
20260508060303 29 16 3.2 9.7 0.00 0.10 0.00 60 1017.7
20260508060205 29 15 3.2 9.7 0.00 0.10 0.00 60 1017.6
20260508060103 29 11 3.2 9.7 0.00 0.10 0.00 60 1017.6
20260508060004 29 5 4.8 9.7 0.00 0.10 0.00 60 1017.6
20260508055903 29 357 4.8 9.7 0.00 0.10 0.00 60 1017.7
20260508055803 29 355 3.2 9.7 0.00 0.10 0.00 60 1017.7
20260508055703 29 342 3.2 6.4 0.00 0.10 0.00 60 1017.7
20260508055624 29 339 3.2 6.4 0.00 0.10 0.00 60 1017.7
20260508055504 29 335 3.2 6.4 0.00 0.10 0.00 60 1017.7
20260508055424 29 335 3.2 6.4 0.00 0.10 0.00 60 1017.5
20260508055306 29 344 4.8 11.3 0.00 0.10 0.00 60 1017.7
20260508055203 29 4 4.8 11.3 0.00 0.10 0.00 60 1017.6
20260508055103 29 21 4.8 11.3 0.00 0.10 0.00 60 1017.8
20260508055003 29 32 4.8 11.3 0.00 0.10 0.00 60 1017.7
20260508054903 29 41 4.8 11.3 0.00 0.10 0.00 60 1017.7
20260508054803 29 49 4.8 11.3 0.00 0.10 0.00 60 1017.7
20260508054724 29 53 4.8 11.3 0.00 0.10 0.00 60 1017.8
20260508054604 29 55 4.8 11.3 0.00 0.10 0.00 60 1017.6
20260508054504 29 55 6.4 11.3 0.00 0.10 0.00 60 1017.6
20260508054403 29 55 6.4 11.3 0.00 0.10 0.00 60 1017.9
20260508054303 29 57 4.8 11.3 0.00 0.10 0.00 60 1018.0
20260508054203 29 51 4.8 11.3 0.00 0.10 0.00 60 1018.0
20260508054103 29 63 4.8 9.7 0.00 0.10 0.00 60 1018.0
20260508054003 29 69 4.8 9.7 0.00 0.10 0.00 60 1017.9
20260508053903 29 69 4.8 9.7 0.00 0.10 0.00 60 1017.9
20260508053803 29 69 4.8 9.7 0.00 0.10 0.00 60 1017.9
20260508053703 29 65 4.8 9.7 0.00 0.10 0.00 60 1018.0
20260508053624 29 63 4.8 9.7 0.00 0.10 0.00 60 1017.9
20260508053524 29 48 6.4 14.5 0.00 0.10 0.00 60 1018.0
20260508053403 29 43 6.4 14.5 0.00 0.10 0.00 60 1018.0
20260508053303 29 36 6.4 14.5 0.00 0.10 0.00 60 1017.8
20260508053203 29 29 6.4 14.5 0.00 0.10 0.00 60 1018.3
20260508053103 29 19 6.4 14.5 0.00 0.10 0.00 60 1018.1
20260508053024 29 19 6.4 14.5 0.00 0.10 0.00 60 1018.0
20260508052904 29 11 6.4 14.5 0.00 0.10 0.00 60 1018.1
20260508052803 29 4 6.4 14.5 0.00 0.10 0.00 60 1018.0
20260508052703 29 4 6.4 14.5 0.00 0.10 0.00 60 1018.3
20260508052625 29 11 6.4 14.5 0.00 0.10 0.00 60 1018.3
20260508052503 29 30 4.8 9.7 0.00 0.10 0.00 60 1018.1
20260508052424 29 32 4.8 9.7 0.00 0.10 0.00 60 1018.1
20260508052324 29 28 6.4 9.7 0.00 0.10 0.00 60 1018.1
20260508052203 29 41 6.4 9.7 0.00 0.10 0.00 60 1018.1
20260508052103 29 38 4.8 9.7 0.00 0.10 0.00 60 1018.3
20260508052024 29 35 4.8 9.7 0.00 0.10 0.00 60 1018.3
20260508051903 29 34 4.8 9.7 0.00 0.10 0.00 60 1018.4
20260508051803 29 24 4.8 9.7 0.00 0.10 0.00 60 1018.1
20260508051703 29 16 6.4 12.9 0.00 0.10 0.00 60 1018.3
20260508051624 29 16 4.8 12.9 0.00 0.10 0.00 60 1018.3
20260508051525 29 10 4.8 12.9 0.00 0.10 0.00 60 1018.4
20260508051424 29 2 4.8 12.9 0.00 0.10 0.00 60 1018.4
20260508051303 29 4 4.8 12.9 0.00 0.10 0.00 60 1018.3
20260508051203 29 2 4.8 12.9 0.00 0.10 0.00 60 1018.4
20260508051103 29 360 4.8 12.9 0.00 0.10 0.00 60 1018.5
20260508051003 29 1 4.8 12.9 0.00 0.10 0.00 60 1018.5
20260508050904 29 6 4.8 12.9 0.00 0.10 0.00 60 1018.5
20260508050804 29 17 6.4 12.9 0.00 0.10 0.00 60 1018.5
20260508050703 29 37 4.8 12.9 0.00 0.10 0.00 60 1018.7
20260508050624 29 27 4.8 9.7 0.00 0.10 0.00 60 1018.6
20260508050524 29 92 4.8 9.7 0.00 0.10 0.00 60 1018.6
20260508050403 29 139 4.8 9.7 0.00 0.10 0.00 60 1018.5
20260508050303 29 155 4.8 9.7 0.00 0.10 0.00 60 1018.6
20260508050203 29 164 4.8 9.7 0.00 0.10 0.00 60 1018.8
20260508050124 29 165 4.8 9.7 0.00 0.10 0.00 60 1018.8
20260508050003 29 166 3.2 9.7 0.00 0.10 0.00 60 1018.7
20260508045903 29 162 3.2 9.7 0.00 0.10 0.00 60 1018.6
20260508045803 29 127 4.8 11.3 0.00 0.10 0.00 60 1018.5
20260508045703 29 110 4.8 11.3 0.00 0.10 0.00 60 1018.5
20260508045624 29 106 4.8 11.3 0.00 0.10 0.00 60 1018.6
20260508045503 29 78 4.8 11.3 0.00 0.10 0.00 60 1018.5
20260508045403 29 58 4.8 11.3 0.00 0.10 0.00 60 1018.7
20260508045306 29 59 4.8 11.3 0.00 0.10 0.00 60 1018.7
20260508045203 29 59 4.8 11.3 0.00 0.10 0.00 60 1018.6
20260508045103 29 54 4.8 11.3 0.00 0.10 0.00 60 1018.7
20260508045005 29 54 4.8 11.3 0.00 0.10 0.00 60 1018.7
20260508044903 29 44 4.8 11.3 0.00 0.10 0.00 60 1018.8
20260508044803 29 33 4.8 9.7 0.00 0.10 0.00 60 1018.7
20260508044724 29 29 4.8 9.7 0.00 0.10 0.00 60 1018.7
20260508044603 29 5 4.8 9.7 0.00 0.10 0.00 60 1018.9
20260508044503 29 353 4.8 9.7 0.00 0.10 0.00 60 1018.9
20260508044403 29 346 4.8 9.7 0.00 0.10 0.00 60 1018.9
20260508044303 29 339 4.8 11.3 0.00 0.10 0.00 60 1018.8
20260508044203 29 334 4.8 11.3 0.00 0.10 0.00 60 1018.8
20260508044103 29 327 4.8 11.3 0.00 0.10 0.00 60 1018.8
20260508044003 29 325 6.4 11.3 0.00 0.10 0.00 60 1018.8